N4ASP-13 Weather Reports


Display with metric or nautical units.
time (UTC)temp
F
wind
direction
speed
MPH
gust
MPH
rain 1hr
in
rain 24hr
in
rain mn
in
humidity
%
barometer
mb
20200331233347 42 24 8.0 13.0 0.04 0.05 0.05 94 929.8
20200331233247 42 21 9.0 13.0 0.03 0.04 0.04 94 929.6
20200331233147 42 25 9.0 16.0 0.03 0.04 0.04 94 929.6
20200331233040 42 59 10.0 16.0 0.03 0.04 0.04 93 929.7
20200331232941 42 34 11.0 18.0 0.03 0.04 0.04 93 929.7
20200331232834 42 62 11.0 18.0 0.03 0.04 0.04 93 929.7
20200331232735 42 50 11.0 18.0 0.03 0.04 0.04 93 929.6
20200331232628 42 49 11.0 18.0 0.03 0.04 0.04 93 929.6
20200331232530 42 43 11.0 18.0 0.02 0.03 0.03 93 929.6
20200331232425 42 22 11.0 18.0 0.02 0.03 0.03 93 929.5
20200331232322 42 49 11.0 18.0 0.02 0.03 0.03 92 929.5
20200331232217 42 70 11.0 18.0 0.02 0.03 0.03 92 929.5
20200331232114 42 55 10.0 18.0 0.01 0.02 0.03 92 929.5
20200331232007 42 80 10.0 18.0 0.01 0.02 0.02 92 929.6
20200331231907 42 63 9.0 16.0 0.01 0.02 0.02 92 929.5
20200331231802 42 59 9.0 16.0 0.01 0.02 0.02 92 929.5
20200331231701 43 16 9.0 14.0 0.00 0.01 0.02 92 929.5
20200331231556 43 72 8.0 14.0 0.00 0.01 0.01 92 929.5
20200331231455 43 67 8.0 14.0 0.00 0.01 0.01 92 929.5
20200331231349 43 17 8.0 17.0 0.00 0.01 0.01 92 929.5
20200331231249 43 24 8.0 17.0 0.00 0.01 0.01 92 929.5
20200331231144 43 53 8.0 17.0 0.00 0.01 0.01 92 929.5
20200331231043 43 37 8.0 17.0 0.00 0.01 0.01 91 929.5
20200331230938 43 355 8.0 17.0 0.00 0.01 0.01 91 929.5
20200331230837 43 50 8.0 17.0 0.00 0.01 0.01 91 929.5
20200331230732 43 75 8.0 17.0 0.00 0.01 0.01 91 929.5
20200331230631 43 76 8.0 17.0 0.00 0.01 0.01 91 929.4
20200331230525 43 24 8.0 17.0 0.00 0.01 0.01 91 929.4
20200331230425 43 55 7.0 17.0 0.00 0.01 0.01 91 929.4
20200331230320 43 37 7.0 14.0 0.00 0.01 0.01 91 929.4
20200331230219 43 57 7.0 14.0 0.00 0.01 0.01 91 929.3
20200331230114 43 59 7.0 14.0 0.00 0.01 0.01 91 929.3
20200331230013 43 27 7.0 14.0 0.00 0.01 0.01 91 929.3
20200331225907 44 329 7.0 15.0 0.00 0.01 0.01 91 929.3
20200331225807 44 23 7.0 15.0 0.00 0.01 0.01 91 929.3
20200331225701 44 45 7.0 15.0 0.00 0.01 0.01 91 929.3
20200331225601 44 38 8.0 15.0 0.00 0.01 0.01 90 929.2
20200331225456 44 24 8.0 15.0 0.00 0.01 0.01 90 929.3
20200331225355 44 62 9.0 15.0 0.00 0.01 0.01 90 929.2
20200331225248 44 62 9.0 15.0 0.00 0.01 0.01 89 929.1
20200331225147 44 66 10.0 15.0 0.00 0.01 0.01 89 929.2
20200331225041 44 65 10.0 15.0 0.00 0.01 0.01 89 929.2
20200331224941 44 61 10.0 16.0 0.00 0.01 0.01 89 929.2
20200331224836 44 61 10.0 16.0 0.00 0.01 0.01 89 929.3
20200331224735 44 102 10.0 16.0 0.00 0.01 0.01 89 929.3
20200331224630 44 71 10.0 16.0 0.00 0.01 0.01 89 929.3
20200331224529 44 94 10.0 16.0 0.00 0.01 0.01 89 929.3
20200331224423 44 81 10.0 16.0 0.00 0.01 0.01 89 929.3
20200331224323 44 21 10.0 16.0 0.00 0.01 0.01 89 929.3
20200331224218 44 59 11.0 16.0 0.00 0.01 0.01 89 929.3
20200331224117 44 59 11.0 17.0 0.00 0.01 0.01 89 929.3
20200331224011 44 51 11.0 19.0 0.00 0.01 0.01 89 929.3
20200331223910 44 57 11.0 19.0 0.00 0.01 0.01 89 929.4
20200331223804 44 64 11.0 19.0 0.00 0.01 0.01 89 929.4
20200331223703 44 96 11.0 19.0 0.00 0.01 0.01 89 929.4
20200331223557 44 67 11.0 19.0 0.00 0.01 0.01 89 929.4
20200331223457 44 59 11.0 19.0 0.00 0.01 0.01 89 929.4
20200331223352 44 57 11.0 19.0 0.00 0.01 0.01 89 929.4
20200331223251 44 43 11.0 19.0 0.00 0.01 0.01 89 929.2
20200331223146 44 84 11.0 19.0 0.00 0.01 0.01 89 929.2
20200331223045 44 63 10.0 19.0 0.00 0.01 0.01 89 929.2
20200331222940 44 49 10.0 17.0 0.00 0.01 0.01 89 929.2
20200331222839 44 36 10.0 17.0 0.00 0.01 0.01 89 929.2
20200331222733 44 65 9.0 17.0 0.00 0.01 0.01 89 929.2
20200331222633 44 62 9.0 14.0 0.00 0.01 0.01 89 929.3
20200331222528 44 55 9.0 14.0 0.00 0.01 0.01 89 929.3
20200331222427 44 56 9.0 15.0 0.00 0.01 0.01 89 929.3
20200331222321 44 73 9.0 15.0 0.00 0.01 0.01 89 929.3
20200331222221 44 60 9.0 15.0 0.00 0.01 0.01 89 929.3
20200331222116 44 83 9.0 15.0 0.00 0.01 0.01 90 929.3
20200331222014 44 81 9.0 15.0 0.00 0.01 0.01 89 929.2
20200331221909 44 94 9.0 15.0 0.00 0.01 0.01 89 929.2
20200331221809 44 75 9.0 15.0 0.00 0.01 0.01 90 929.2
20200331221707 44 73 10.0 15.0 0.00 0.01 0.01 90 929.2
20200331221607 44 64 9.0 16.0 0.00 0.01 0.01 90 929.2
20200331221508 44 40 9.0 16.0 0.00 0.01 0.01 90 929.1
20200331221407 44 54 9.0 16.0 0.00 0.01 0.01 90 929.1
20200331221307 44 84 9.0 16.0 0.00 0.01 0.01 90 929.1
20200331221207 44 76 9.0 16.0 0.00 0.01 0.01 90 929.1
20200331221108 44 79 9.0 16.0 0.00 0.01 0.01 90 929.0
20200331221002 44 82 8.0 16.0 0.00 0.01 0.01 90 928.9
20200331220901 44 5 8.0 16.0 0.00 0.01 0.01 90 928.9
20200331220754 44 56 8.0 16.0 0.00 0.01 0.01 90 928.9
20200331220655 44 43 7.0 14.0 0.00 0.01 0.01 90 928.8
20200331220549 44 75 7.0 14.0 0.00 0.01 0.01 90 928.9
20200331220449 44 52 7.0 14.0 0.00 0.01 0.01 91 928.9
20200331220344 44 55 7.0 14.0 0.00 0.01 0.01 91 928.9
20200331220243 44 40 7.0 14.0 0.00 0.01 0.01 91 928.9
20200331220144 44 54 7.0 14.0 0.00 0.01 0.01 91 928.8
20200331220043 44 41 7.0 14.0 0.00 0.01 0.01 91 928.9
20200331215942 44 11 7.0 14.0 0.00 0.01 0.01 91 929.0
20200331215840 45 25 6.0 14.0 0.00 0.01 0.01 91 928.9
20200331215742 45 36 6.0 12.0 0.00 0.01 0.01 91 928.9
20200331215642 44 54 6.0 12.0 0.00 0.01 0.01 91 928.9
20200331215541 45 24 7.0 12.0 0.00 0.01 0.01 91 928.8
20200331215435 45 55 7.0 12.0 0.00 0.01 0.01 91 928.8
20200331215335 45 33 7.0 12.0 0.00 0.01 0.01 91 928.9
20200331215230 45 74 7.0 15.0 0.00 0.01 0.01 91 928.7
20200331215129 45 47 7.0 15.0 0.00 0.01 0.01 91 928.9
20200331215024 45 132 7.0 15.0 0.00 0.01 0.01 91 928.8
20200331214923 45 57 7.0 15.0 0.00 0.01 0.01 91 928.8
20200331214818 45 16 7.0 15.0 0.00 0.01 0.01 91 928.8
20200331214717 45 145 7.0 15.0 0.00 0.01 0.01 90 928.7
20200331214611 45 69 8.0 15.0 0.00 0.01 0.01 90 928.6
20200331214511 45 60 7.0 15.0 0.00 0.01 0.01 90 928.7
20200331214406 45 58 7.0 15.0 0.00 0.01 0.01 90 928.7
20200331214305 45 56 7.0 13.0 0.00 0.01 0.01 90 928.7
20200331214200 45 56 7.0 13.0 0.00 0.01 0.01 90 928.7
20200331214059 45 69 7.0 13.0 0.00 0.01 0.01 90 928.6
20200331213953 45 35 7.0 13.0 0.00 0.01 0.01 90 928.6
20200331213853 45 28 7.0 13.0 0.00 0.01 0.01 90 928.6
20200331213748 45 31 7.0 13.0 0.00 0.01 0.01 90 928.7
20200331213646 45 71 6.0 13.0 0.00 0.01 0.01 90 928.6
20200331213541 45 15 6.0 12.0 0.00 0.01 0.01 90 928.6
20200331213441 45 57 7.0 12.0 0.00 0.01 0.01 90 928.7
20200331213336 45 17 7.0 12.0 0.00 0.01 0.01 90 928.8
20200331213235 45 57 6.0 12.0 0.00 0.01 0.01 90 928.6
20200331213130 45 24 6.0 11.0 0.00 0.01 0.01 90 928.7
20200331213029 45 49 6.0 11.0 0.00 0.01 0.01 90 928.7
20200331212923 45 30 6.0 11.0 0.00 0.01 0.01 90 928.7
20200331212823 45 44 6.0 11.0 0.00 0.01 0.01 90 928.7
20200331212718 45 40 6.0 11.0 0.00 0.01 0.01 90 928.7
20200331212617 45 27 7.0 12.0 0.00 0.01 0.01 90 928.6
20200331212511 45 78 7.0 12.0 0.00 0.01 0.01 90 928.6
20200331212411 45 83 6.0 12.0 0.00 0.01 0.01 90 928.6
20200331212306 45 61 7.0 12.0 0.00 0.01 0.01 90 928.6
20200331212206 45 34 7.0 12.0 0.00 0.01 0.01 89 928.7
20200331212059 45 47 7.0 14.0 0.00 0.01 0.01 89 928.7
20200331211959 45 57 8.0 14.0 0.00 0.01 0.01 89 928.7
20200331211854 45 46 8.0 14.0 0.00 0.01 0.01 89 928.6
20200331211753 45 22 8.0 14.0 0.00 0.01 0.01 89 928.7
20200331211648 45 49 8.0 14.0 0.00 0.01 0.01 89 928.8
20200331211547 45 41 8.0 14.0 0.00 0.01 0.01 88 928.7
20200331211440 45 49 8.0 14.0 0.00 0.01 0.01 88 928.7
20200331211341 45 32 8.0 14.0 0.00 0.01 0.01 88 928.7
20200331211248 45 355 9.0 14.0 0.00 0.01 0.01 88 928.8
20200331211135 45 336 9.0 14.0 0.00 0.01 0.01 88 928.7
20200331211029 45 68 9.0 17.0 0.00 0.01 0.01 88 928.8
20200331210929 45 59 9.0 17.0 0.00 0.01 0.01 88 928.9
20200331210824 45 49 9.0 17.0 0.00 0.01 0.01 88 928.9
20200331210723 45 140 9.0 17.0 0.00 0.01 0.01 88 929.0
20200331210617 45 61 9.0 17.0 0.00 0.01 0.01 88 929.0
20200331210518 45 36 9.0 17.0 0.00 0.01 0.01 87 929.1
20200331210411 45 54 9.0 17.0 0.00 0.01 0.01 87 929.1
20200331210311 46 64 9.0 17.0 0.00 0.01 0.01 87 929.2
20200331210206 46 81 9.0 17.0 0.00 0.01 0.01 88 929.2
20200331210105 46 61 9.0 13.0 0.00 0.01 0.01 88 929.2
20200331205958 46 26 9.0 15.0 0.00 0.01 0.01 87 929.2
20200331205859 46 76 10.0 15.0 0.00 0.01 0.01 87 929.3
20200331205754 46 52 10.0 16.0 0.00 0.01 0.01 87 929.1
20200331205653 46 57 11.0 16.0 0.00 0.01 0.01 87 929.2
20200331205547 46 32 11.0 16.0 0.00 0.01 0.01 87 929.2
20200331205448 46 61 11.0 16.0 0.00 0.01 0.01 87 929.2
20200331205342 46 44 12.0 16.0 0.00 0.01 0.01 87 929.1
20200331205241 46 71 12.0 16.0 0.00 0.01 0.01 86 929.1
20200331205135 46 80 12.0 16.0 0.00 0.01 0.01 87 929.0
20200331205035 46 78 12.0 16.0 0.00 0.01 0.01 87 929.0
20200331204930 46 81 12.0 16.0 0.00 0.01 0.01 87 928.9
20200331204829 46 103 11.0 15.0 0.00 0.01 0.01 87 929.0
20200331204724 46 79 11.0 15.0 0.00 0.01 0.01 87 929.0
20200331204623 46 61 11.0 16.0 0.00 0.01 0.01 87 929.0
20200331204517 46 83 11.0 16.0 0.00 0.01 0.01 87 929.0
20200331204417 46 111 11.0 16.0 0.00 0.01 0.01 87 929.1
20200331204312 46 60 11.0 16.0 0.00 0.01 0.01 87 929.3
20200331204211 46 55 10.0 16.0 0.00 0.01 0.01 87 929.3
20200331204105 46 63 10.0 16.0 0.00 0.01 0.01 87 929.4
20200331204005 46 61 9.0 16.0 0.00 0.01 0.01 87 929.5
20200331203900 46 74 9.0 16.0 0.00 0.01 0.01 87 929.6
20200331203759 46 74 9.0 16.0 0.00 0.01 0.01 86 929.7
20200331203654 46 68 9.0 16.0 0.00 0.01 0.01 87 929.8
20200331203554 46 61 8.0 15.0 0.00 0.01 0.01 87 929.8
20200331203448 46 59 8.0 12.0 0.00 0.01 0.01 86 929.8
20200331203347 46 64 7.0 12.0 0.00 0.01 0.01 86 929.8
20200331203241 46 42 8.0 12.0 0.00 0.01 0.01 86 929.8
20200331203141 46 59 8.0 12.0 0.00 0.01 0.01 86 929.8
20200331203035 46 42 8.0 12.0 0.00 0.01 0.01 86 929.8
20200331202935 46 59 8.0 14.0 0.00 0.01 0.01 86 929.8
20200331202829 46 36 8.0 14.0 0.00 0.01 0.01 86 929.9
20200331202729 46 64 7.0 14.0 0.00 0.01 0.01 86 929.9
20200331202623 46 53 8.0 14.0 0.01 0.01 0.01 86 930.0
20200331202523 46 15 7.0 14.0 0.01 0.01 0.01 86 930.0
20200331202416 46 24 8.0 14.0 0.01 0.01 0.01 86 929.9
20200331202318 46 43 8.0 14.0 0.01 0.01 0.01 86 930.0
20200331202211 46 42 8.0 14.0 0.01 0.01 0.01 86 929.9
20200331202111 46 64 8.0 14.0 0.01 0.01 0.01 86 929.8
20200331202005 46 44 7.0 13.0 0.01 0.01 0.01 86 929.7
20200331201905 46 35 7.0 13.0 0.01 0.01 0.01 86 929.5
20200331201800 46 34 7.0 13.0 0.01 0.01 0.01 86 929.6
20200331201658 46 61 8.0 13.0 0.01 0.01 0.01 85 929.7
20200331201553 46 21 8.0 13.0 0.01 0.01 0.01 86 929.7
20200331201453 47 30 9.0 17.0 0.01 0.01 0.01 86 929.7
20200331201348 47 44 9.0 17.0 0.01 0.01 0.01 86 929.5
20200331201247 47 17 10.0 17.0 0.01 0.01 0.01 86 929.6
20200331201141 47 60 10.0 17.0 0.01 0.01 0.01 86 929.6
20200331201041 47 53 10.0 17.0 0.01 0.01 0.01 86 929.6
20200331200936 47 69 11.0 17.0 0.01 0.01 0.01 85 929.5
20200331200835 46 67 11.0 18.0 0.01 0.01 0.01 85 929.6
20200331200729 46 80 11.0 18.0 0.01 0.01 0.01 84 929.6
20200331200629 46 77 11.0 18.0 0.01 0.01 0.01 85 929.6
20200331200523 46 67 11.0 18.0 0.01 0.01 0.01 85 929.6
20200331200423 46 108 11.0 18.0 0.01 0.01 0.01 85 929.6
20200331200318 46 82 10.0 18.0 0.01 0.01 0.01 84 929.6
20200331200217 46 71 10.0 18.0 0.01 0.01 0.01 84 929.7
20200331200111 47 90 10.0 18.0 0.01 0.01 0.01 84 929.7
20200331200011 47 86 10.0 18.0 0.01 0.01 0.01 84 929.6
20200331195906 47 96 9.0 16.0 0.01 0.01 0.01 84 929.6
20200331195805 47 78 9.0 15.0 0.01 0.01 0.01 84 929.7
20200331195700 47 104 9.0 15.0 0.01 0.01 0.01 84 929.7
20200331195559 47 65 9.0 15.0 0.01 0.01 0.01 84 929.8
20200331195454 47 79 9.0 15.0 0.01 0.01 0.01 84 929.9
20200331195354 47 46 9.0 15.0 0.01 0.01 0.01 84 929.8
20200331195247 47 74 9.0 15.0 0.01 0.01 0.01 85 929.8
20200331195147 48 5 10.0 15.0 0.01 0.01 0.01 86 929.8
20200331195042 47 81 11.0 17.0 0.01 0.01 0.01 85 929.9
20200331194941 47 26 11.0 18.0 0.01 0.01 0.01 86 929.9
20200331194835 47 59 12.0 18.0 0.01 0.01 0.01 85 929.9
20200331194735 47 72 12.0 18.0 0.01 0.01 0.01 84 929.8
20200331194629 47 61 12.0 18.0 0.01 0.01 0.01 84 929.7
20200331194529 47 64 12.0 18.0 0.01 0.01 0.01 84 929.8
20200331194423 47 61 12.0 18.0 0.01 0.01 0.01 83 929.7
20200331194323 47 86 12.0 18.0 0.01 0.01 0.01 83 929.8
20200331194217 47 107 11.0 18.0 0.01 0.01 0.01 84 929.8
20200331194117 47 79 11.0 18.0 0.01 0.01 0.01 84 929.8
20200331194012 47 82 10.0 17.0 0.01 0.01 0.01 86 929.8
20200331193911 47 98 10.0 17.0 0.01 0.01 0.01 85 929.9
20200331193806 47 63 9.0 16.0 0.01 0.01 0.01 85 930.1
20200331193705 47 69 9.0 16.0 0.01 0.01 0.01 86 930.1
20200331193559 47 60 9.0 16.0 0.01 0.01 0.01 85 930.2
20200331193459 47 90 9.0 16.0 0.01 0.01 0.01 84 930.2
20200331193354 47 75 9.0 16.0 0.01 0.01 0.01 85 930.3
20200331193253 47 53 10.0 16.0 0.01 0.01 0.01 84 930.4
20200331193147 47 68 10.0 16.0 0.01 0.01 0.01 85 930.8
20200331193047 47 92 10.0 16.0 0.01 0.01 0.01 84 930.8
20200331192942 47 78 10.0 16.0 0.01 0.01 0.01 84 930.6
20200331192840 47 76 10.0 16.0 0.01 0.01 0.01 85 930.5
20200331192736 47 101 11.0 16.0 0.01 0.01 0.01 85 930.2
20200331192635 47 84 12.0 20.0 0.00 0.00 0.01 82 930.1
20200331192530 48 95 12.0 22.0 0.00 0.00 0.00 84 930.0
20200331192429 48 78 13.0 22.0 0.00 0.00 0.00 84 929.9
20200331192323 48 92 13.0 22.0 0.00 0.00 0.00 84 930.0
20200331192223 48 45 13.0 22.0 0.00 0.00 0.00 85 930.1
20200331192117 48 85 14.0 22.0 0.00 0.00 0.00 86 930.2
20200331192017 48 124 14.0 22.0 0.00 0.00 0.00 87 930.3
20200331191912 47 91 14.0 22.0 0.00 0.00 0.00 86 930.2
20200331191811 47 96 14.0 22.0 0.00 0.00 0.00 84 930.1
20200331191705 47 61 13.0 22.0 0.00 0.00 0.00 84 930.0
20200331191605 47 93 13.0 22.0 0.00 0.00 0.00 85 930.1
20200331191459 46 63 12.0 20.0 0.00 0.00 0.00 84 930.2
20200331191359 46 83 11.0 20.0 0.00 0.00 0.00 84 930.3
20200331191253 46 90 10.0 19.0 0.00 0.00 0.00 83 930.3
20200331191154 46 81 9.0 18.0 0.00 0.00 0.00 84 930.6
20200331191047 46 70 9.0 16.0 0.00 0.00 0.00 84 931.1
20200331190947 46 80 8.0 13.0 0.00 0.00 0.00 84 931.2
20200331190842 46 84 8.0 13.0 0.00 0.00 0.00 84 931.3
20200331190742 46 65 7.0 13.0 0.00 0.00 0.00 84 931.4
20200331190635 46 83 7.0 13.0 0.00 0.00 0.00 84 931.5
20200331190535 46 51 7.0 13.0 0.00 0.00 0.00 84 931.6
20200331190429 46 52 7.0 13.0 0.00 0.00 0.00 84 931.5
20200331190330 46 55 8.0 19.0 0.00 0.00 0.00 84 931.7
20200331190223 46 99 8.0 19.0 0.00 0.00 0.00 85 931.7
20200331190123 46 64 9.0 19.0 0.00 0.00 0.00 84 931.7
20200331190017 46 78 9.0 19.0 0.00 0.00 0.00 84 931.7
20200331185917 46 72 10.0 19.0 0.00 0.00 0.00 84 931.7
20200331185809 46 17 11.0 20.0 0.00 0.00 0.00 84 931.7
20200331185711 46 29 11.0 20.0 0.00 0.00 0.00 84 931.6
20200331185606 46 37 11.0 20.0 0.00 0.00 0.00 84 931.6
20200331185505 46 59 11.0 20.0 0.00 0.00 0.00 83 931.6
20200331185359 47 71 11.0 20.0 0.00 0.00 0.00 83 931.6
20200331185300 47 72 10.0 20.0 0.00 0.00 0.00 84 931.5
20200331185154 47 59 11.0 20.0 0.00 0.00 0.00 83 931.6
20200331185053 47 109 10.0 20.0 0.00 0.00 0.00 82 931.6
20200331184947 47 84 10.0 20.0 0.00 0.00 0.00 84 931.7
20200331184847 47 66 9.0 17.0 0.00 0.00 0.00 85 931.6
20200331184742 47 92 9.0 17.0 0.00 0.00 0.00 84 931.6
20200331184641 48 67 9.0 17.0 0.00 0.00 0.00 84 931.6
20200331184535 48 65 9.0 17.0 0.00 0.00 0.00 86 931.7
20200331184435 47 50 10.0 17.0 0.00 0.00 0.00 85 931.7
20200331184330 47 67 10.0 17.0 0.00 0.00 0.00 84 931.6
20200331184229 47 69 10.0 17.0 0.00 0.00 0.00 86 931.7
20200331184123 47 70 10.0 16.0 0.00 0.00 0.00 86 931.9
20200331184023 47 57 10.0 16.0 0.00 0.00 0.00 85 931.9
20200331183917 46 74 10.0 16.0 0.00 0.00 0.00 85 931.9
20200331183817 46 318 11.0 16.0 0.00 0.00 0.00 84 932.0
20200331183711 46 20 11.0 18.0 0.00 0.00 0.00 83 932.0
20200331183611 46 60 12.0 18.0 0.00 0.00 0.00 84 931.9
20200331183505 47 37 11.0 18.0 0.00 0.00 0.00 84 932.1
20200331183405 47 77 11.0 18.0 0.00 0.00 0.00 84 932.2
20200331183259 47 59 11.0 18.0 0.00 0.00 0.00 84 932.2
20200331183159 47 55 12.0 18.0 0.00 0.00 0.00 84 932.2
20200331183053 47 20 12.0 18.0 0.00 0.00 0.00 84 932.1
20200331182953 47 57 12.0 18.0 0.00 0.00 0.00 83 932.2
20200331182847 47 42 12.0 18.0 0.00 0.00 0.00 83 932.3
20200331182747 47 58 11.0 18.0 0.00 0.00 0.00 84 932.3
20200331182641 47 126 11.0 18.0 0.00 0.00 0.00 85 932.4
20200331182541 47 111 11.0 18.0 0.00 0.00 0.00 85 932.4
20200331182435 47 59 11.0 18.0 0.00 0.00 0.00 84 932.4
20200331182334 47 56 11.0 18.0 0.00 0.00 0.00 84 932.4
20200331182229 47 66 10.0 18.0 0.00 0.00 0.00 85 932.3
20200331182129 47 56 10.0 18.0 0.00 0.00 0.00 84 932.4
20200331182023 47 61 10.0 18.0 0.00 0.00 0.00 85 932.5
20200331181923 47 95 9.0 18.0 0.00 0.00 0.00 84 932.5
20200331181817 47 38 9.0 18.0 0.00 0.00 0.00 86 932.6
20200331181717 46 10 9.0 18.0 0.00 0.00 0.00 85 932.5
20200331181612 46 34 8.0 18.0 0.00 0.00 0.00 85 932.5
20200331181511 46 22 8.0 18.0 0.00 0.00 0.00 85 932.5
20200331181405 46 355 8.0 18.0 0.00 0.00 0.00 83 932.6
20200331181305 46 62 8.0 18.0 0.00 0.00 0.00 84 932.5
20200331181159 46 44 7.0 18.0 0.00 0.00 0.00 85 932.7
20200331181059 46 42 7.0 18.0 0.00 0.00 0.00 86 932.7
20200331180954 46 0 8.0 18.0 0.00 0.00 0.00 86 932.7
20200331180853 46 30 9.0 18.0 0.00 0.00 0.00 86 932.7
20200331180747 46 346 9.0 18.0 0.00 0.00 0.00 85 932.9
20200331180647 46 5 9.0 18.0 0.00 0.00 0.00 85 932.9
20200331180541 46 63 9.0 18.0 0.00 0.00 0.00 84 932.9
20200331180441 46 38 8.0 18.0 0.00 0.00 0.00 84 932.9
20200331180336 46 29 8.0 16.0 0.00 0.00 0.00 85 932.9
20200331180236 46 355 9.0 16.0 0.00 0.00 0.00 84 932.8
20200331180129 46 10 9.0 16.0 0.00 0.00 0.00 83 932.8
20200331180029 46 36 8.0 16.0 0.00 0.00 0.00 84 932.9
20200331175923 47 17 8.0 16.0 0.00 0.00 0.00 84 933.0
20200331175823 47 355 8.0 16.0 0.00 0.00 0.00 85 933.1
20200331175717 47 348 7.0 16.0 0.00 0.00 0.00 85 933.2
20200331175617 47 26 8.0 16.0 0.00 0.00 0.00 85 933.1
20200331175511 47 43 8.0 16.0 0.00 0.00 0.00 84 933.1
20200331175411 47 20 8.0 16.0 0.00 0.00 0.00 83 933.1
20200331175306 47 295 8.0 16.0 0.00 0.00 0.00 83 933.1
20200331175205 47 55 7.0 15.0 0.00 0.00 0.00 84 933.2
20200331175059 47 12 7.0 15.0 0.00 0.00 0.00 84 933.3
20200331174959 47 30 7.0 15.0 0.00 0.00 0.00 83 933.2
20200331174853 47 17 7.0 15.0 0.00 0.00 0.00 83 933.3
20200331174753 47 33 7.0 15.0 0.00 0.00 0.00 83 933.2
20200331174647 47 48 7.0 15.0 0.00 0.00 0.00 82 933.3
20200331174546 47 55 7.0 15.0 0.00 0.00 0.00 82 933.3
20200331174441 47 36 7.0 14.0 0.00 0.00 0.00 83 933.3
20200331174341 47 0 8.0 16.0 0.00 0.00 0.00 82 933.3
20200331174235 47 5 8.0 16.0 0.00 0.00 0.00 81 933.3
20200331174135 47 34 8.0 16.0 0.00 0.00 0.00 80 933.2
20200331174035 47 32 9.0 16.0 0.00 0.00 0.00 80 933.3
20200331173935 47 33 9.0 16.0 0.00 0.00 0.00 80 933.3
20200331173832 47 53 9.0 16.0 0.00 0.00 0.00 80 933.2
20200331173732 47 30 9.0 16.0 0.00 0.00 0.00 79 933.4
20200331173633 47 46 9.0 16.0 0.00 0.00 0.00 79 933.2
20200331173533 47 5 9.0 16.0 0.00 0.00 0.00 79 933.3
20200331173433 47 11 8.0 16.0 0.00 0.00 0.00 78 933.3
20200331173327 47 13 8.0 16.0 0.00 0.00 0.00 78 933.3
20200331173226 47 43 8.0 16.0 0.00 0.00 0.00 78 933.2
20200331173121 47 17 8.0 16.0 0.00 0.00 0.00 77 933.3
20200331173021 47 27 8.0 15.0 0.00 0.00 0.00 77 933.3
20200331172915 47 73 8.0 15.0 0.00 0.00 0.00 77 933.3
20200331172815 47 333 8.0 15.0 0.00 0.00 0.00 77 933.4
20200331172710 47 34 7.0 15.0 0.00 0.00 0.00 76 933.2
20200331172609 47 44 7.0 15.0 0.00 0.00 0.00 76 933.3
20200331172506 47 5 7.0 14.0 0.00 0.00 0.00 75 933.2
20200331172406 47 5 7.0 14.0 0.00 0.00 0.00 75 933.2
20200331172306 47 32 7.0 14.0 0.00 0.00 0.00 75 933.3
20200331172206 47 342 7.0 14.0 0.00 0.00 0.00 75 933.3
20200331172106 47 20 6.0 14.0 0.00 0.00 0.00 75 933.3
20200331172007 47 65 6.0 14.0 0.00 0.00 0.00 75 933.5
20200331171906 47 61 6.0 14.0 0.00 0.00 0.00 75 933.4
20200331171801 47 47 6.0 14.0 0.00 0.00 0.00 75 933.4
20200331171701 47 71 6.0 14.0 0.00 0.00 0.00 75 933.5
20200331171600 47 37 6.0 14.0 0.00 0.00 0.00 75 933.5
20200331171500 47 40 6.0 14.0 0.00 0.00 0.00 75 933.5
20200331171359 47 57 6.0 14.0 0.00 0.00 0.00 75 933.4
20200331171300 47 67 6.0 12.0 0.00 0.00 0.00 75 933.3
20200331171201 47 18 6.0 12.0 0.00 0.00 0.00 75 933.3
20200331171055 47 34 6.0 12.0 0.00 0.00 0.00 75 933.3
20200331170956 47 5 6.0 12.0 0.00 0.00 0.00 75 933.3
20200331170857 47 23 6.0 12.0 0.00 0.00 0.00 74 933.2
20200331170756 47 34 7.0 14.0 0.00 0.00 0.00 74 933.1
20200331170656 47 35 7.0 14.0 0.00 0.00 0.00 74 933.1
20200331170555 47 24 7.0 14.0 0.00 0.00 0.00 74 932.9
20200331170456 47 44 8.0 17.0 0.00 0.00 0.00 73 933.0
20200331170357 47 17 9.0 19.0 0.00 0.00 0.00 73 933.1
20200331170252 47 36 9.0 19.0 0.00 0.00 0.00 74 932.9
20200331170152 47 5 10.0 19.0 0.00 0.00 0.00 74 933.0
20200331170053 47 28 10.0 19.0 0.00 0.00 0.00 74 933.0
20200331165951 47 65 11.0 23.0 0.00 0.00 0.00 73 932.9
20200331165852 47 5 11.0 23.0 0.00 0.00 0.00 73 932.9
20200331165752 47 45 11.0 23.0 0.00 0.00 0.00 73 932.8
20200331165652 47 51 11.0 23.0 0.00 0.00 0.00 73 932.9
20200331165553 48 61 12.0 23.0 0.00 0.00 0.00 72 932.7
20200331165449 48 65 12.0 23.0 0.00 0.00 0.00 72 932.7
20200331165348 48 76 11.0 23.0 0.00 0.00 0.00 72 932.7
20200331165249 48 33 12.0 23.0 0.00 0.00 0.00 73 932.7
20200331165147 48 30 12.0 23.0 0.00 0.00 0.00 72 932.8
20200331165048 48 63 13.0 23.0 0.00 0.00 0.00 72 932.7
20200331164948 48 69 13.0 23.0 0.00 0.00 0.00 73 932.8
20200331164847 48 29 14.0 23.0 0.00 0.00 0.00 72 932.8
20200331164749 48 80 14.0 23.0 0.00 0.00 0.00 71 933.0
20200331164645 48 58 14.0 23.0 0.00 0.00 0.00 70 933.0
20200331164544 48 88 14.0 23.0 0.00 0.00 0.00 71 933.0
20200331164444 48 65 14.0 23.0 0.00 0.00 0.00 70 933.1
20200331164344 48 70 13.0 23.0 0.00 0.00 0.00 70 933.1
20200331164243 48 68 13.0 23.0 0.00 0.00 0.00 71 933.0
20200331164143 48 64 13.0 23.0 0.00 0.00 0.00 70 933.0
20200331164044 48 72 12.0 23.0 0.00 0.00 0.00 69 933.1
20200331163945 48 99 12.0 19.0 0.00 0.00 0.00 69 933.1
20200331163841 48 41 11.0 19.0 0.00 0.00 0.00 69 933.1
20200331163740 48 64 11.0 19.0 0.00 0.00 0.00 68 933.2
20200331163641 48 35 11.0 19.0 0.00 0.00 0.00 68 933.3
20200331163539 48 64 10.0 19.0 0.00 0.00 0.00 68 933.4
20200331163440 48 61 10.0 19.0 0.00 0.00 0.00 68 933.5
20200331163340 48 55 10.0 18.0 0.00 0.00 0.00 67 933.5
20200331163239 48 73 10.0 18.0 0.00 0.00 0.00 68 933.6
20200331163141 48 69 9.0 14.0 0.00 0.00 0.00 68 933.7
20200331163037 48 63 9.0 14.0 0.00 0.00 0.00 68 933.6
20200331162936 48 71 10.0 15.0 0.00 0.00 0.00 68 933.6
20200331162838 48 40 10.0 16.0 0.00 0.00 0.00 68 933.6
20200331162736 48 66 10.0 16.0 0.00 0.00 0.00 69 933.7
20200331162636 48 36 10.0 16.0 0.00 0.00 0.00 69 933.7
20200331162535 48 65 10.0 16.0 0.00 0.00 0.00 68 933.7
20200331162436 48 61 10.0 16.0 0.00 0.00 0.00 68 933.7
20200331162337 48 68 11.0 16.0 0.00 0.00 0.00 69 933.7
20200331162233 48 64 11.0 16.0 0.00 0.00 0.00 69 933.7
20200331162131 48 22 12.0 19.0 0.00 0.00 0.00 68 933.6
20200331162033 48 63 12.0 19.0 0.00 0.00 0.00 67 933.7
20200331161932 48 96 12.0 19.0 0.00 0.00 0.00 68 933.8
20200331161832 48 40 13.0 19.0 0.00 0.00 0.00 68 933.8
20200331161732 48 63 13.0 19.0 0.00 0.00 0.00 67 933.9
20200331161632 48 59 14.0 19.0 0.00 0.00 0.00 68 934.0
20200331161533 49 61 13.0 19.0 0.00 0.00 0.00 67 934.0
20200331161429 49 86 13.0 19.0 0.00 0.00 0.00 67 933.9
20200331161329 49 91 13.0 19.0 0.00 0.00 0.00 66 933.9
20200331161229 49 71 12.0 19.0 0.00 0.00 0.00 66 933.9
20200331161127 49 71 11.0 19.0 0.00 0.00 0.00 65 933.9
20200331161027 49 74 11.0 19.0 0.00 0.00 0.00 65 934.0
20200331160928 49 78 10.0 19.0 0.00 0.00 0.00 64 934.2
20200331160828 49 86 9.0 19.0 0.00 0.00 0.00 64 934.1
20200331160729 49 90 8.0 18.0 0.00 0.00 0.00 63 934.2
20200331160625 49 78 8.0 18.0 0.00 0.00 0.00 64 934.4
20200331160523 49 75 8.0 16.0 0.00 0.00 0.00 63 934.2
20200331160426 49 132 8.0 16.0 0.00 0.00 0.00 64 934.3
20200331160324 49 90 8.0 16.0 0.00 0.00 0.00 64 934.3
20200331160224 49 87 8.0 16.0 0.00 0.00 0.00 64 934.4
20200331160125 49 88 9.0 16.0 0.00 0.00 0.00 63 934.4
20200331160023 49 68 10.0 17.0 0.00 0.00 0.00 63 934.5
20200331155925 49 105 10.0 17.0 0.00 0.00 0.00 63 934.5
20200331155820 49 115 10.0 17.0 0.00 0.00 0.00 63 934.4
20200331155720 49 75 10.0 17.0 0.00 0.00 0.00 63 934.5
20200331155621 49 62 11.0 17.0 0.00 0.00 0.00 62 934.6
20200331155519 49 56 11.0 18.0 0.00 0.00 0.00 62 934.8
20200331155420 49 87 11.0 18.0 0.00 0.00 0.00 62 935.0
20200331155319 49 98 10.0 18.0 0.00 0.00 0.00 62 934.9
20200331155220 49 77 10.0 18.0 0.00 0.00 0.00 62 934.9
20200331155121 49 78 9.0 18.0 0.00 0.00 0.00 62 934.9
20200331155017 49 73 9.0 18.0 0.00 0.00 0.00 62 935.0
20200331154916 49 105 8.0 18.0 0.00 0.00 0.00 62 935.0
20200331154816 49 80 8.0 18.0 0.00 0.00 0.00 62 934.9
20200331154716 49 101 7.0 18.0 0.00 0.00 0.00 62 934.9
20200331154616 49 89 7.0 18.0 0.00 0.00 0.00 62 934.9
20200331154517 49 76 6.0 12.0 0.00 0.00 0.00 62 934.9
20200331154416 49 79 6.0 11.0 0.00 0.00 0.00 62 935.0
20200331154317 49 57 6.0 11.0 0.00 0.00 0.00 62 935.0
20200331154212 49 85 7.0 11.0 0.00 0.00 0.00 62 935.0
20200331154111 49 71 7.0 21.0 0.00 0.00 0.00 62 935.0
20200331154013 49 92 8.0 21.0 0.00 0.00 0.00 62 935.0
20200331153911 49 96 8.0 21.0 0.00 0.00 0.00 62 934.8
20200331153812 49 86 9.0 21.0 0.00 0.00 0.00 62 934.7
20200331153712 49 82 9.0 21.0 0.00 0.00 0.00 62 934.7
20200331153612 49 99 10.0 21.0 0.00 0.00 0.00 61 934.8
20200331153513 49 76 11.0 21.0 0.00 0.00 0.00 61 934.8
20200331153405 49 73 11.0 21.0 0.00 0.00 0.00 61 934.9
20200331153306 49 88 12.0 21.0 0.00 0.00 0.00 61 934.9
20200331153153 49 87 13.0 21.0 0.00 0.00 0.00 61 934.8
20200331153052 49 68 13.0 21.0 0.00 0.00 0.00 60 934.8
20200331152952 49 87 13.0 21.0 0.00 0.00 0.00 60 934.7
20200331152853 49 72 13.0 21.0 0.00 0.00 0.00 60 934.5
20200331152752 49 94 14.0 21.0 0.00 0.00 0.00 60 934.6
20200331152652 49 84 13.0 21.0 0.00 0.00 0.00 61 934.6
20200331152551 49 74 13.0 21.0 0.00 0.00 0.00 60 934.6
20200331152453 49 97 13.0 21.0 0.00 0.00 0.00 60 934.6
20200331152349 49 85 13.0 21.0 0.00 0.00 0.00 59 934.6
20200331152247 49 47 13.0 21.0 0.00 0.00 0.00 60 934.5
20200331152148 49 82 13.0 19.0 0.00 0.00 0.00 59 934.6
20200331152048 49 67 13.0 19.0 0.00 0.00 0.00 59 934.6
20200331151947 49 70 12.0 19.0 0.00 0.00 0.00 60 934.6
20200331151847 49 59 12.0 19.0 0.00 0.00 0.00 59 934.6
20200331151748 49 57 12.0 19.0 0.00 0.00 0.00 59 934.6
20200331151649 49 92 11.0 19.0 0.00 0.00 0.00 60 934.7
20200331151541 49 78 10.0 18.0 0.00 0.00 0.00 59 934.5
20200331151442 49 73 10.0 18.0 0.00 0.00 0.00 59 934.5
20200331151335 49 70 10.0 18.0 0.00 0.00 0.00 58 934.5
20200331151236 49 88 10.0 18.0 0.00 0.00 0.00 58 934.5
20200331151130 49 53 9.0 18.0 0.00 0.00 0.00 59 934.5
20200331151030 49 61 9.0 18.0 0.00 0.00 0.00 59 934.5
20200331150925 49 63 8.0 18.0 0.00 0.00 0.00 58 934.6
20200331150824 49 82 9.0 18.0 0.00 0.00 0.00 58 934.6
20200331150719 49 82 9.0 18.0 0.00 0.00 0.00 58 934.7
20200331150618 49 63 9.0 18.0 0.00 0.00 0.00 59 934.6
20200331150512 49 80 10.0 18.0 0.00 0.00 0.00 58 934.6
20200331150412 49 77 10.0 18.0 0.00 0.00 0.00 58 934.6
20200331150307 49 114 10.0 18.0 0.00 0.00 0.00 58 934.5
20200331150207 50 109 11.0 18.0 0.00 0.00 0.00 58 934.5
20200331150101 49 117 11.0 18.0 0.00 0.00 0.00 58 934.6
20200331150000 50 55 12.0 18.0 0.00 0.00 0.00 58 934.5
20200331145854 49 98 13.0 19.0 0.00 0.00 0.00 58 934.6
20200331145754 49 82 13.0 19.0 0.00 0.00 0.00 57 934.6
20200331145648 49 111 14.0 21.0 0.00 0.00 0.00 58 934.6
20200331145548 49 100 14.0 21.0 0.00 0.00 0.00 57 934.6
20200331145444 50 128 15.0 21.0 0.00 0.00 0.00 56 934.7
20200331145343 50 111 15.0 21.0 0.00 0.00 0.00 57 934.7
20200331145234 50 100 15.0 21.0 0.00 0.00 0.00 57 934.7
20200331145134 50 86 15.0 21.0 0.00 0.00 0.00 57 934.6
20200331145029 50 81 15.0 21.0 0.00 0.00 0.00 56 934.6
20200331144928 50 55 14.0 21.0 0.00 0.00 0.00 56 934.6
20200331144823 50 71 14.0 21.0 0.00 0.00 0.00 56 934.6
20200331144617 50 81 14.0 21.0 0.00 0.00 0.00 56 934.5
20200331144517 50 126 13.0 20.0 0.00 0.00 0.00 55 934.6
20200331144411 50 101 12.0 19.0 0.00 0.00 0.00 55 934.5
20200331144310 50 69 12.0 19.0 0.00 0.00 0.00 55 934.7
20200331144205 50 101 12.0 19.0 0.00 0.00 0.00 55 934.8
20200331144103 50 86 12.0 19.0 0.00 0.00 0.00 54 934.7
20200331143957 50 79 12.0 19.0 0.00 0.00 0.00 55 934.7
20200331143857 50 102 12.0 19.0 0.00 0.00 0.00 54 934.7
20200331143752 50 89 12.0 19.0 0.00 0.00 0.00 54 934.8
20200331143649 50 87 12.0 19.0 0.00 0.00 0.00 54 934.8
20200331143545 50 92 12.0 19.0 0.00 0.00 0.00 55 934.9
20200331143444 50 76 12.0 19.0 0.00 0.00 0.00 55 935.0
20200331143339 50 74 12.0 19.0 0.00 0.00 0.00 54 935.1
20200331143238 50 76 12.0 19.0 0.00 0.00 0.00 53 935.2
20200331143133 50 122 11.0 19.0 0.00 0.00 0.00 53 935.3
20200331143032 50 98 11.0 17.0 0.00 0.00 0.00 53 935.3
20200331142934 50 79 10.0 17.0 0.00 0.00 0.00 54 935.4
20200331142833 50 69 10.0 17.0 0.00 0.00 0.00 54 935.4
20200331142733 50 61 9.0 16.0 0.00 0.00 0.00 53 935.4
20200331142631 50 96 9.0 16.0 0.00 0.00 0.00 54 935.3
20200331142530 50 81 9.0 14.0 0.00 0.00 0.00 54 935.2
20200331142431 50 96 9.0 14.0 0.00 0.00 0.00 53 935.3
20200331142330 50 102 8.0 14.0 0.00 0.00 0.00 54 935.3
20200331142225 50 65 8.0 14.0 0.00 0.00 0.00 53 935.2
20200331142124 50 80 8.0 14.0 0.00 0.00 0.00 53 935.3
20200331142018 50 57 8.0 14.0 0.00 0.00 0.00 55 935.4
20200331141918 50 69 8.0 13.0 0.00 0.00 0.00 55 935.5
20200331141813 50 64 8.0 13.0 0.00 0.00 0.00 53 935.7
20200331141712 50 105 8.0 13.0 0.00 0.00 0.00 52 935.8
20200331141605 50 65 8.0 13.0 0.00 0.00 0.00 53 935.9
20200331141507 50 71 8.0 13.0 0.00 0.00 0.00 53 935.9
20200331141400 50 88 8.0 13.0 0.00 0.00 0.00 53 935.9
20200331141258 50 68 7.0 13.0 0.00 0.00 0.00 51 935.9
20200331141152 50 105 7.0 13.0 0.00 0.00 0.00 52 935.9
20200331141052 50 83 7.0 11.0 0.00 0.00 0.00 52 935.9
20200331140947 50 59 7.0 13.0 0.00 0.00 0.00 53 936.0
20200331140846 50 72 7.0 13.0 0.00 0.00 0.00 51 935.9
20200331140741 50 72 7.0 13.0 0.00 0.00 0.00 52 935.8
20200331140640 50 73 7.0 13.0 0.00 0.00 0.00 52 935.8
20200331140535 50 61 7.0 13.0 0.00 0.00 0.00 52 935.8
20200331140434 50 56 7.0 13.0 0.00 0.00 0.00 53 935.9
20200331140329 50 59 8.0 13.0 0.00 0.00 0.00 53 936.0
20200331140228 50 37 8.0 17.0 0.00 0.00 0.00 52 936.0
20200331140122 50 61 9.0 17.0 0.00 0.00 0.00 52 936.0
20200331140022 50 55 9.0 17.0 0.00 0.00 0.00 53 936.1
20200331135917 50 82 9.0 17.0 0.00 0.00 0.00 53 936.1
20200331135815 50 55 10.0 17.0 0.00 0.00 0.00 52 936.0
20200331135709 50 78 10.0 17.0 0.00 0.00 0.00 52 936.0
20200331135608 50 68 10.0 17.0 0.00 0.00 0.00 52 935.9
20200331135501 50 49 10.0 17.0 0.00 0.00 0.00 51 935.9
20200331135402 50 54 10.0 17.0 0.00 0.00 0.00 51 935.8
20200331135257 50 61 10.0 17.0 0.00 0.00 0.00 52 935.9
20200331135156 50 51 10.0 17.0 0.00 0.00 0.00 52 935.8
20200331135051 50 63 11.0 17.0 0.00 0.00 0.00 52 935.7
20200331134951 50 56 10.0 17.0 0.00 0.00 0.00 51 935.7
20200331134850 50 125 10.0 17.0 0.00 0.00 0.00 51 935.7
20200331134750 50 92 10.0 17.0 0.00 0.00 0.00 51 935.6
20200331134650 50 68 10.0 17.0 0.00 0.00 0.00 51 935.6
20200331134549 50 34 10.0 17.0 0.00 0.00 0.00 51 935.6
20200331134448 50 39 10.0 17.0 0.00 0.00 0.00 51 935.7
20200331134349 50 57 10.0 17.0 0.00 0.00 0.00 51 935.8
20200331134248 50 46 10.0 15.0 0.00 0.00 0.00 51 935.8
20200331134143 50 79 9.0 14.0 0.00 0.00 0.00 51 935.9
20200331134042 50 50 9.0 14.0 0.00 0.00 0.00 52 935.8
20200331133937 50 54 9.0 14.0 0.00 0.00 0.00 50 935.8
20200331133836 50 50 8.0 14.0 0.00 0.00 0.00 50 935.7
20200331133731 50 80 8.0 14.0 0.00 0.00 0.00 50 935.7
20200331133630 50 38 8.0 14.0 0.00 0.00 0.00 51 935.8
20200331133523 50 61 8.0 14.0 0.00 0.00 0.00 51 935.7
20200331133424 50 73 7.0 14.0 0.00 0.00 0.00 50 935.6
20200331133319 50 61 7.0 14.0 0.00 0.00 0.00 51 935.6
20200331133217 50 31 7.0 14.0 0.00 0.00 0.00 51 935.5
20200331133111 50 42 7.0 14.0 0.00 0.00 0.00 52 935.5
20200331133010 50 26 7.0 14.0 0.00 0.00 0.00 52 935.6
20200331132905 50 57 7.0 14.0 0.00 0.00 0.00 51 935.6
20200331132804 50 44 8.0 14.0 0.00 0.00 0.00 50 935.6
20200331132659 50 57 8.0 15.0 0.00 0.00 0.00 50 935.6
20200331132558 50 37 7.0 15.0 0.00 0.00 0.00 52 935.7
20200331132453 50 63 7.0 15.0 0.00 0.00 0.00 51 935.6
20200331132352 50 43 8.0 15.0 0.00 0.00 0.00 51 935.6
20200331132249 50 63 8.0 15.0 0.00 0.00 0.00 51 935.5
20200331132149 50 80 7.0 15.0 0.00 0.00 0.00 52 935.4
20200331132049 50 53 7.0 15.0 0.00 0.00 0.00 51 935.5
20200331131949 50 26 7.0 15.0 0.00 0.00 0.00 50 935.4
20200331131850 50 50 7.0 15.0 0.00 0.00 0.00 50 935.4
20200331131750 50 52 7.0 15.0 0.00 0.00 0.00 51 935.5
20200331131650 50 57 8.0 14.0 0.00 0.00 0.00 51 935.4
20200331131546 50 34 8.0 14.0 0.00 0.00 0.00 51 935.4
20200331131444 50 31 8.0 14.0 0.00 0.00 0.00 50 935.6
20200331131338 50 55 8.0 14.0 0.00 0.00 0.00 51 935.7
20200331131238 50 67 9.0 13.0 0.00 0.00 0.00 51 935.8
20200331131132 50 41 9.0 14.0 0.00 0.00 0.00 52 935.8
20200331131032 50 42 10.0 14.0 0.00 0.00 0.00 50 935.8
20200331130925 50 61 10.0 17.0 0.00 0.00 0.00 51 935.7
20200331130825 50 28 10.0 17.0 0.00 0.00 0.00 51 935.6
20200331130725 50 55 10.0 17.0 0.00 0.00 0.00 51 935.6
20200331130626 50 59 10.0 17.0 0.00 0.00 0.00 52 935.6
20200331130524 50 61 9.0 17.0 0.00 0.00 0.00 52 935.9
20200331130423 50 355 9.0 17.0 0.00 0.00 0.00 51 936.0
20200331130324 49 105 9.0 17.0 0.00 0.00 0.00 51 936.0
20200331130225 49 41 9.0 17.0 0.00 0.00 0.00 51 936.0
20200331130124 49 22 9.0 17.0 0.00 0.00 0.00 51 936.0
20200331130018 49 63 8.0 17.0 0.00 0.00 0.00 52 936.0
20200331125918 49 61 8.0 15.0 0.00 0.00 0.00 52 936.1
20200331125812 49 63 8.0 15.0 0.00 0.00 0.00 51 936.1
20200331125712 49 64 8.0 16.0 0.00 0.00 0.00 52 936.0
20200331125605 50 65 8.0 16.0 0.00 0.00 0.00 51 936.1
20200331125505 50 48 8.0 16.0 0.00 0.00 0.00 51 936.1
20200331125400 50 43 8.0 16.0 0.00 0.00 0.00 51 936.2
20200331125300 50 50 8.0 16.0 0.00 0.00 0.00 51 936.2
20200331125154 50 13 8.0 16.0 0.00 0.00 0.00 50 936.1
20200331125054 50 27 8.0 16.0 0.00 0.00 0.00 51 936.1
20200331124949 50 44 8.0 16.0 0.00 0.00 0.00 50 936.2
20200331124848 50 14 8.0 16.0 0.00 0.00 0.00 50 936.2
20200331124742 50 5 8.0 15.0 0.00 0.00 0.00 50 936.2
20200331124642 50 32 9.0 16.0 0.00 0.00 0.00 49 936.1
20200331124536 50 26 8.0 17.0 0.00 0.00 0.00 49 936.1
20200331124436 50 35 8.0 17.0 0.00 0.00 0.00 49 936.1
20200331124329 50 13 9.0 17.0 0.00 0.00 0.00 49 936.2
20200331124230 50 11 9.0 17.0 0.00 0.00 0.00 48 936.3
20200331124125 50 37 8.0 17.0 0.00 0.00 0.00 49 936.4
20200331124024 50 43 9.0 17.0 0.00 0.00 0.00 49 936.3
20200331123919 50 22 9.0 17.0 0.00 0.00 0.00 49 936.1
20200331123818 50 53 9.0 17.0 0.00 0.00 0.00 48 936.0
20200331123712 50 34 9.0 17.0 0.00 0.00 0.00 48 935.9
20200331123612 50 17 8.0 16.0 0.00 0.00 0.00 48 935.9
20200331123506 50 24 8.0 14.0 0.00 0.00 0.00 48 935.9
20200331123406 50 5 8.0 14.0 0.00 0.00 0.00 48 936.1
20200331123301 50 25 8.0 12.0 0.00 0.00 0.00 49 936.2
20200331123200 50 11 8.0 12.0 0.00 0.00 0.00 48 936.3
20200331123055 50 34 8.0 12.0 0.00 0.00 0.00 48 936.5
20200331122955 50 30 8.0 12.0 0.00 0.00 0.00 49 936.6
20200331122848 50 44 8.0 12.0 0.00 0.00 0.00 48 936.9
20200331122748 50 53 8.0 12.0 0.00 0.00 0.00 48 937.1
20200331122642 50 54 8.0 12.0 0.00 0.00 0.00 48 937.2
20200331122542 50 60 7.0 12.0 0.00 0.00 0.00 47 937.3
20200331122437 50 70 7.0 12.0 0.00 0.00 0.00 48 937.3
20200331122336 50 43 7.0 12.0 0.00 0.00 0.00 48 937.3
20200331122230 50 47 7.0 12.0 0.00 0.00 0.00 47 937.3
20200331122130 50 36 7.0 12.0 0.00 0.00 0.00 47 937.3
20200331122024 50 58 7.0 12.0 0.00 0.00 0.00 48 937.3
20200331121924 50 57 7.0 12.0 0.00 0.00 0.00 47 937.3
20200331121818 50 30 7.0 12.0 0.00 0.00 0.00 47 937.2
20200331121717 50 48 6.0 11.0 0.00 0.00 0.00 48 937.2
20200331121612 50 61 6.0 11.0 0.00 0.00 0.00 49 937.2
20200331121512 50 71 6.0 11.0 0.00 0.00 0.00 48 937.1
20200331121406 50 38 7.0 12.0 0.00 0.00 0.00 47 937.2
20200331121306 50 54 7.0 12.0 0.00 0.00 0.00 47 937.1
20200331121201 50 60 7.0 15.0 0.00 0.00 0.00 48 937.0
20200331121101 50 55 7.0 15.0 0.00 0.00 0.00 48 937.0
20200331120954 50 48 8.0 16.0 0.00 0.00 0.00 48 937.1
20200331120854 50 74 8.0 16.0 0.00 0.00 0.00 48 937.1
20200331120748 50 66 8.0 16.0 0.00 0.00 0.00 48 937.1
20200331120648 50 59 8.0 16.0 0.00 0.00 0.00 48 937.2
20200331120542 51 345 9.0 16.0 0.00 0.00 0.00 47 937.1
20200331120442 51 14 9.0 16.0 0.00 0.00 0.00 47 937.1
20200331120336 51 50 8.0 16.0 0.00 0.00 0.00 47 937.1
20200331120236 51 46 8.0 16.0 0.00 0.00 0.00 46 937.1
20200331120130 51 62 8.0 16.0 0.00 0.00 0.00 46 937.0
20200331120029 51 59 7.0 13.0 0.00 0.00 0.00 46 937.0
20200331115924 51 50 7.0 13.0 0.00 0.00 0.00 46 937.0
20200331115825 51 58 7.0 13.0 0.00 0.00 0.00 46 937.1
20200331115719 51 55 7.0 13.0 0.00 0.00 0.00 46 937.1
20200331115617 51 13 8.0 14.0 0.00 0.00 0.00 46 937.0
20200331115512 51 10 7.0 14.0 0.00 0.00 0.00 46 937.1
20200331115412 51 43 7.0 14.0 0.00 0.00 0.00 46 937.0
20200331115306 51 41 7.0 14.0 0.00 0.00 0.00 46 936.9
20200331115206 51 53 8.0 14.0 0.00 0.00 0.00 46 937.0
20200331115101 51 65 8.0 14.0 0.00 0.00 0.00 46 937.0
20200331115000 51 36 8.0 14.0 0.00 0.00 0.00 46 936.9
20200331114854 51 67 8.0 14.0 0.00 0.00 0.00 46 937.0
20200331114754 51 42 8.0 14.0 0.00 0.00 0.00 46 937.0
20200331114648 51 29 8.0 14.0 0.00 0.00 0.00 46 937.1
20200331114548 51 63 7.0 13.0 0.00 0.00 0.00 46 937.1
20200331114443 51 36 7.0 13.0 0.00 0.00 0.00 45 937.2
20200331114341 51 40 7.0 13.0 0.00 0.00 0.00 45 937.3
20200331114236 51 38 7.0 13.0 0.00 0.00 0.00 45 937.3
20200331114136 51 355 7.0 13.0 0.00 0.00 0.00 45 937.4
20200331114030 51 33 6.0 13.0 0.00 0.00 0.00 44 937.5
20200331113930 51 40 6.0 12.0 0.00 0.00 0.00 45 937.5
20200331113824 51 40 6.0 11.0 0.00 0.00 0.00 45 937.5
20200331113725 51 26 6.0 11.0 0.00 0.00 0.00 45 937.5
20200331113618 51 28 6.0 11.0 0.00 0.00 0.00 45 937.6
20200331113518 51 49 6.0 11.0 0.00 0.00 0.00 45 937.7
20200331113413 51 63 5.0 11.0 0.00 0.00 0.00 45 937.6
20200331113312 51 44 5.0 11.0 0.00 0.00 0.00 45 937.7
20200331113206 51 35 5.0 10.0 0.00 0.00 0.00 45 937.7
20200331113106 51 44 5.0 11.0 0.00 0.00 0.00 45 937.7
20200331112959 51 13 5.0 11.0 0.00 0.00 0.00 45 937.8
20200331112900 51 42 5.0 11.0 0.00 0.00 0.00 45 937.8
20200331112755 51 31 5.0 12.0 0.00 0.00 0.00 45 937.9
20200331112654 51 31 6.0 12.0 0.00 0.00 0.00 45 937.8
20200331112548 51 61 6.0 12.0 0.00 0.00 0.00 45 937.9
20200331112448 51 355 6.0 12.0 0.00 0.00 0.00 44 937.8
20200331112342 51 31 7.0 12.0 0.00 0.00 0.00 44 937.7
20200331112241 51 58 6.0 12.0 0.00 0.00 0.00 44 937.7
20200331112136 51 33 6.0 12.0 0.00 0.00 0.00 44 937.8
20200331112036 51 27 6.0 12.0 0.00 0.00 0.00 44 937.8
20200331111930 51 32 6.0 12.0 0.00 0.00 0.00 44 937.7
20200331111829 51 57 6.0 12.0 0.00 0.00 0.00 44 937.7
20200331111725 51 57 6.0 12.0 0.00 0.00 0.00 44 937.6
20200331111624 51 59 5.0 12.0 0.00 0.00 0.00 44 937.7
20200331111519 51 15 5.0 12.0 0.00 0.00 0.00 44 937.6
20200331111418 51 34 5.0 12.0 0.00 0.00 0.00 44 937.7
20200331111312 51 32 5.0 12.0 0.00 0.00 0.00 44 937.6
20200331111212 51 11 5.0 12.0 0.00 0.00 0.00 44 937.7
20200331111106 51 65 5.0 12.0 0.00 0.00 0.00 44 937.6
20200331111006 51 65 5.0 12.0 0.00 0.00 0.00 44 937.6
20200331110900 51 45 5.0 12.0 0.00 0.00 0.00 44 937.6
20200331110800 51 55 5.0 12.0 0.00 0.00 0.00 44 937.5
20200331110654 51 355 4.0 10.0 0.00 0.00 0.00 45 937.6
20200331110554 51 355 5.0 10.0 0.00 0.00 0.00 44 937.7
20200331110447 51 31 5.0 10.0 0.00 0.00 0.00 44 937.5
20200331110348 51 51 5.0 10.0 0.00 0.00 0.00 44 937.6
20200331110243 51 10 5.0 10.0 0.00 0.00 0.00 44 937.6
20200331110141 51 32 5.0 10.0 0.00 0.00 0.00 44 937.6
20200331110036 51 19 6.0 11.0 0.00 0.00 0.00 43 937.7
20200331105936 51 41 6.0 11.0 0.00 0.00 0.00 44 937.7
20200331105831 51 22 6.0 11.0 0.00 0.00 0.00 44 937.7
20200331105729 51 22 6.0 11.0 0.00 0.00 0.00 44 937.6
20200331105624 51 28 6.0 11.0 0.00 0.00 0.00 44 937.7
20200331105524 51 28 6.0 11.0 0.00 0.00 0.00 44 937.7
20200331105418 51 57 5.0 11.0 0.00 0.00 0.00 44 937.7
20200331105318 51 22 5.0 11.0 0.00 0.00 0.00 44 937.6
20200331105213 51 13 5.0 11.0 0.00 0.00 0.00 44 937.8
20200331105111 51 5 5.0 11.0 0.00 0.00 0.00 44 937.6
20200331105006 51 30 5.0 11.0 0.00 0.00 0.00 44 937.7
20200331104906 51 34 5.0 11.0 0.00 0.00 0.00 44 937.8
20200331104800 51 47 5.0 9.0 0.00 0.00 0.00 44 937.9
20200331104700 51 27 4.0 9.0 0.00 0.00 0.00 44 938.0
20200331104554 51 28 4.0 9.0 0.00 0.00 0.00 44 938.1
20200331104454 51 5 4.0 9.0 0.00 0.00 0.00 44 938.1
20200331104348 51 5 4.0 9.0 0.00 0.00 0.00 44 938.1
20200331104248 51 49 4.0 9.0 0.00 0.00 0.00 44 938.0
20200331104142 51 25 4.0 9.0 0.00 0.00 0.00 43 938.0
20200331104042 51 40 4.0 9.0 0.00 0.00 0.00 43 938.1
20200331103936 51 57 3.0 8.0 0.00 0.00 0.00 44 938.2
20200331103836 51 44 3.0 8.0 0.00 0.00 0.00 44 938.2
20200331103729 51 0 3.0 8.0 0.00 0.00 0.00 43 938.2
20200331103630 51 25 3.0 8.0 0.00 0.00 0.00 44 938.1
20200331103524 51 42 3.0 8.0 0.00 0.00 0.00 43 938.1
20200331103423 52 34 3.0 8.0 0.00 0.00 0.00 43 938.1
20200331103319 52 22 3.0 8.0 0.00 0.00 0.00 43 938.2
20200331103218 52 29 4.0 12.0 0.00 0.00 0.00 42 938.2
20200331103112 52 13 4.0 12.0 0.00 0.00 0.00 43 938.3
20200331103012 52 30 4.0 12.0 0.00 0.00 0.00 43 938.2
20200331102905 52 31 4.0 12.0 0.00 0.00 0.00 42 938.2
20200331102806 52 23 4.0 12.0 0.00 0.00 0.00 43 938.2
20200331102659 52 326 4.0 12.0 0.00 0.00 0.00 43 938.2
20200331102600 52 59 5.0 12.0 0.00 0.00 0.00 43 938.1
20200331102455 52 24 5.0 12.0 0.00 0.00 0.00 42 938.1
20200331102354 52 53 5.0 12.0 0.00 0.00 0.00 42 938.1
20200331102249 52 15 5.0 12.0 0.00 0.00 0.00 42 938.1
20200331102148 52 337 4.0 12.0 0.00 0.00 0.00 43 938.1
20200331102043 52 344 4.0 12.0 0.00 0.00 0.00 43 938.0
20200331101941 52 9 4.0 12.0 0.00 0.00 0.00 42 938.0
20200331101836 51 59 4.0 12.0 0.00 0.00 0.00 42 937.9
20200331101736 51 27 4.0 12.0 0.00 0.00 0.00 43 937.9
20200331101629 51 46 4.0 12.0 0.00 0.00 0.00 43 937.9
20200331101530 51 95 3.0 12.0 0.00 0.00 0.00 43 937.9
20200331101424 51 44 3.0 12.0 0.00 0.00 0.00 42 937.8
20200331101323 51 32 3.0 12.0 0.00 0.00 0.00 43 937.8
20200331101218 51 16 3.0 8.0 0.00 0.00 0.00 43 937.9
20200331101118 51 22 3.0 8.0 0.00 0.00 0.00 43 937.7
20200331101011 51 20 3.0 8.0 0.00 0.00 0.00 43 937.7
20200331100912 51 19 2.0 8.0 0.00 0.00 0.00 43 937.6
20200331100806 51 58 2.0 5.0 0.00 0.00 0.00 43 937.6
20200331100706 51 21 2.0 9.0 0.00 0.00 0.00 43 937.7
20200331100558 51 337 3.0 9.0 0.00 0.00 0.00 42 937.7
20200331100500 51 315 3.0 9.0 0.00 0.00 0.00 43 937.7
20200331100353 51 346 3.0 9.0 0.00 0.00 0.00 43 937.7
20200331100254 51 347 3.0 9.0 0.00 0.00 0.00 43 937.7
20200331100148 51 10 3.0 9.0 0.00 0.00 0.00 42 937.7
20200331100048 51 329 3.0 9.0 0.00 0.00 0.00 42 937.7
20200331095941 51 5 4.0 9.0 0.00 0.00 0.00 42 937.6
20200331095842 51 37 4.0 9.0 0.00 0.00 0.00 42 937.6
20200331095735 51 63 4.0 9.0 0.00 0.00 0.00 42 937.6
20200331095635 51 344 4.0 9.0 0.00 0.00 0.00 42 937.6
20200331095530 51 20 5.0 9.0 0.00 0.00 0.00 42 937.5
20200331095430 52 355 5.0 10.0 0.00 0.00 0.00 42 937.5
20200331095323 51 346 5.0 10.0 0.00 0.00 0.00 42 937.4
20200331095224 52 296 6.0 10.0 0.00 0.00 0.00 42 937.4
20200331095116 52 19 6.0 10.0 0.00 0.00 0.00 42 937.4
20200331095018 52 5 6.0 10.0 0.00 0.00 0.00 41 937.3
20200331094912 51 22 6.0 10.0 0.00 0.00 0.00 42 937.3
20200331094815 51 344 6.0 10.0 0.00 0.00 0.00 42 937.2
20200331094707 51 345 6.0 10.0 0.00 0.00 0.00 42 937.1
20200331094620 51 355 6.0 10.0 0.00 0.00 0.00 42 937.1
20200331094607 51 5 5.0 10.0 0.00 0.00 0.00 42 937.1
20200331094536 51 5 5.0 10.0 0.00 0.00 0.00 42 937.1
20200331094505 51 5 5.0 10.0 0.00 0.00 0.00 42 937.1
20200331094359 52 355 5.0 10.0 0.00 0.00 0.00 42 937.2
20200331094254 52 11 5.0 10.0 0.00 0.00 0.00 42 937.1
20200331094154 52 0 5.0 10.0 0.00 0.00 0.00 42 937.0
20200331094047 52 346 5.0 10.0 0.00 0.00 0.00 42 937.0
20200331093948 52 344 5.0 10.0 0.00 0.00 0.00 42 937.1
20200331093841 52 350 5.0 9.0 0.00 0.00 0.00 41 937.1
20200331093742 52 324 4.0 9.0 0.00 0.00 0.00 42 937.2
20200331093636 52 327 4.0 9.0 0.00 0.00 0.00 41 937.1
20200331093536 52 347 5.0 9.0 0.00 0.00 0.00 41 937.1
20200331093430 52 9 5.0 9.0 0.00 0.00 0.00 41 937.1
20200331093330 52 16 5.0 10.0 0.00 0.00 0.00 41 937.1
20200331093224 52 339 5.0 10.0 0.00 0.00 0.00 40 937.1
20200331093124 52 345 5.0 10.0 0.00 0.00 0.00 41 937.0
20200331093018 52 5 5.0 10.0 0.00 0.00 0.00 42 937.0
20200331092918 52 341 5.0 10.0 0.00 0.00 0.00 41 937.2
20200331092811 52 14 5.0 10.0 0.00 0.00 0.00 41 937.0
20200331092712 52 345 5.0 10.0 0.00 0.00 0.00 40 937.0
20200331092606 52 355 6.0 10.0 0.00 0.00 0.00 40 937.0
20200331092506 52 333 6.0 10.0 0.00 0.00 0.00 41 937.0
20200331092401 52 0 6.0 10.0 0.00 0.00 0.00 41 937.0
20200331092300 52 11 6.0 10.0 0.00 0.00 0.00 41 937.0
20200331092154 52 344 6.0 10.0 0.00 0.00 0.00 40 937.0
20200331092054 52 355 6.0 10.0 0.00 0.00 0.00 41 936.9
20200331091950 52 334 6.0 10.0 0.00 0.00 0.00 40 936.9
20200331091849 52 355 6.0 10.0 0.00 0.00 0.00 40 936.9
20200331091742 52 332 6.0 10.0 0.00 0.00 0.00 41 936.8
20200331091642 52 348 6.0 10.0 0.00 0.00 0.00 40 936.9
20200331091540 52 329 6.0 10.0 0.00 0.00 0.00 40 936.8
20200331091439 52 342 6.0 10.0 0.00 0.00 0.00 41 936.9
20200331091338 52 0 6.0 10.0 0.00 0.00 0.00 40 936.9
20200331091238 52 350 6.0 10.0 0.00 0.00 0.00 40 936.9
20200331091138 52 336 6.0 10.0 0.00 0.00 0.00 40 936.8
20200331091040 52 320 6.0 12.0 0.00 0.00 0.00 40 937.0
20200331090940 52 5 6.0 12.0 0.00 0.00 0.00 41 937.0
20200331090834 52 341 6.0 12.0 0.00 0.00 0.00 40 937.0
20200331090734 52 5 7.0 12.0 0.00 0.00 0.00 40 936.9
20200331090627 52 338 7.0 12.0 0.00 0.00 0.00 41 936.8
20200331090528 52 5 7.0 12.0 0.00 0.00 0.00 41 936.8
20200331090425 52 350 7.0 12.0 0.00 0.00 0.00 40 936.8
20200331090325 52 350 7.0 12.0 0.00 0.00 0.00 40 936.7
20200331090225 52 5 6.0 12.0 0.00 0.00 0.00 40 936.8
20200331090125 52 349 6.0 12.0 0.00 0.00 0.00 40 936.7
20200331090025 52 332 6.0 12.0 0.00 0.00 0.00 39 936.7
20200331085926 52 5 6.0 12.0 0.00 0.00 0.00 40 936.7
20200331085825 52 355 6.0 12.0 0.00 0.00 0.00 39 936.7
20200331085720 52 351 5.0 12.0 0.00 0.00 0.00 40 936.7
20200331085620 52 5 5.0 9.0 0.00 0.00 0.00 40 936.7
20200331085514 52 11 5.0 9.0 0.00 0.00 0.00 40 936.8
20200331085414 52 5 5.0 9.0 0.00 0.00 0.00 40 936.7
20200331085307 52 341 4.0 9.0 0.00 0.00 0.00 40 936.7
20200331085208 52 10 4.0 9.0 0.00 0.00 0.00 39 936.7
20200331085102 52 42 4.0 8.0 0.00 0.00 0.00 39 936.7
20200331085002 52 9 4.0 7.0 0.00 0.00 0.00 39 936.7
20200331084859 52 20 4.0 7.0 0.00 0.00 0.00 40 936.7
20200331084759 52 346 3.0 7.0 0.00 0.00 0.00 40 936.7
20200331084659 52 28 3.0 7.0 0.00 0.00 0.00 40 936.7
20200331084559 52 5 3.0 7.0 0.00 0.00 0.00 40 936.7
20200331084500 52 15 3.0 7.0 0.00 0.00 0.00 39 936.8
20200331084400 52 5 3.0 7.0 0.00 0.00 0.00 39 936.7
20200331084300 52 5 3.0 7.0 0.00 0.00 0.00 40 936.8
20200331084154 52 340 3.0 7.0 0.00 0.00 0.00 40 936.8
20200331084054 52 29 3.0 7.0 0.00 0.00 0.00 41 936.8
20200331083946 52 14 3.0 7.0 0.00 0.00 0.00 40 936.8
20200331083848 52 21 3.0 7.0 0.00 0.00 0.00 40 936.9
20200331083742 53 355 4.0 8.0 0.00 0.00 0.00 39 936.8
20200331083642 53 27 4.0 8.0 0.00 0.00 0.00 40 936.8
20200331083536 53 355 4.0 8.0 0.00 0.00 0.00 39 936.8
20200331083436 53 17 4.0 8.0 0.00 0.00 0.00 39 936.8
20200331083330 53 355 4.0 8.0 0.00 0.00 0.00 39 936.9
20200331083230 53 19 4.0 8.0 0.00 0.00 0.00 39 936.9
20200331083123 53 15 4.0 8.0 0.00 0.00 0.00 39 936.9
20200331083023 53 16 4.0 8.0 0.00 0.00 0.00 39 937.0
20200331082920 53 15 4.0 8.0 0.00 0.00 0.00 39 937.0
20200331082819 53 338 4.0 8.0 0.00 0.00 0.00 40 937.0
20200331082719 53 0 4.0 8.0 0.00 0.00 0.00 39 937.1
20200331082619 53 350 3.0 8.0 0.00 0.00 0.00 40 937.1
20200331082520 53 350 3.0 8.0 0.00 0.00 0.00 39 937.1
20200331082418 53 0 3.0 8.0 0.00 0.00 0.00 39 937.0
20200331082320 53 5 3.0 5.0 0.00 0.00 0.00 39 937.1
20200331082216 53 350 3.0 5.0 0.00 0.00 0.00 39 937.1
20200331082116 53 17 3.0 5.0 0.00 0.00 0.00 40 937.1
20200331082016 53 25 2.0 5.0 0.00 0.00 0.00 40 937.0
20200331081916 53 31 2.0 5.0 0.00 0.00 0.00 40 937.0
20200331081817 53 17 2.0 5.0 0.00 0.00 0.00 41 937.1
20200331081718 53 351 2.0 4.0 0.00 0.00 0.00 40 937.1
20200331081617 53 22 2.0 4.0 0.00 0.00 0.00 40 937.0
20200331081518 53 22 2.0 4.0 0.00 0.00 0.00 41 937.1
20200331081413 53 23 2.0 4.0 0.00 0.00 0.00 41 937.1
20200331081313 53 14 2.0 4.0 0.00 0.00 0.00 40 937.0
20200331081214 53 12 2.0 5.0 0.00 0.00 0.00 40 937.1
20200331081112 53 12 2.0 5.0 0.00 0.00 0.00 40 937.2
20200331081012 53 24 2.0 6.0 0.00 0.00 0.00 40 937.2
20200331080914 53 23 3.0 6.0 0.00 0.00 0.00 40 937.2
20200331080812 53 24 3.0 6.0 0.00 0.00 0.00 40 937.1
20200331080714 53 19 3.0 6.0 0.00 0.00 0.00 40 937.2
20200331080610 53 12 3.0 6.0 0.00 0.00 0.00 40 937.2
20200331080509 53 0 3.0 6.0 0.00 0.00 0.00 40 937.2
20200331080409 53 22 3.0 6.0 0.00 0.00 0.00 40 937.2
20200331080308 53 9 3.0 6.0 0.00 0.00 0.00 41 937.3
20200331080209 53 26 3.0 6.0 0.00 0.00 0.00 40 937.2
20200331080109 53 19 2.0 6.0 0.00 0.00 0.00 40 937.3
20200331080009 53 9 2.0 5.0 0.00 0.00 0.00 39 937.2
20200331075910 53 0 2.0 5.0 0.00 0.00 0.00 40 937.3
20200331075806 53 16 2.0 5.0 0.00 0.00 0.00 40 937.2
20200331075707 53 23 2.0 5.0 0.00 0.00 0.00 40 937.3
20200331075604 53 16 2.0 5.0 0.00 0.00 0.00 39 937.3
20200331075505 53 15 2.0 5.0 0.00 0.00 0.00 40 937.3
20200331075405 53 15 2.0 5.0 0.00 0.00 0.00 39 937.4
20200331075306 53 19 2.0 5.0 0.00 0.00 0.00 39 937.3
20200331075205 53 13 2.0 5.0 0.00 0.00 0.00 39 937.3
20200331075106 53 355 2.0 5.0 0.00 0.00 0.00 39 937.4
20200331075001 53 15 3.0 5.0 0.00 0.00 0.00 38 937.3
20200331074902 53 13 3.0 6.0 0.00 0.00 0.00 39 937.4
20200331074802 53 13 3.0 9.0 0.00 0.00 0.00 39 937.4
20200331074702 53 13 3.0 9.0 0.00 0.00 0.00 38 937.4
20200331074601 53 5 4.0 9.0 0.00 0.00 0.00 38 937.4
20200331074502 53 22 4.0 9.0 0.00 0.00 0.00 39 937.4
20200331074400 53 0 4.0 9.0 0.00 0.00 0.00 39 937.5
20200331074303 53 342 4.0 9.0 0.00 0.00 0.00 39 937.4
20200331074158 53 350 3.0 9.0 0.00 0.00 0.00 38 937.3
20200331074057 53 350 3.0 9.0 0.00 0.00 0.00 38 937.5
20200331073956 53 331 3.0 9.0 0.00 0.00 0.00 38 937.4
20200331073857 53 345 3.0 9.0 0.00 0.00 0.00 39 937.4
20200331073757 53 333 3.0 5.0 0.00 0.00 0.00 39 937.4
20200331073657 53 342 3.0 5.0 0.00 0.00 0.00 39 937.5
20200331073557 53 348 3.0 5.0 0.00 0.00 0.00 39 937.6
20200331073457 53 335 3.0 7.0 0.00 0.00 0.00 39 937.5
20200331073352 53 350 3.0 8.0 0.00 0.00 0.00 39 937.5
20200331073252 53 0 3.0 8.0 0.00 0.00 0.00 39 937.6
20200331073152 53 16 3.0 8.0 0.00 0.00 0.00 39 937.6
20200331073053 53 0 3.0 8.0 0.00 0.00 0.00 39 937.6
20200331072953 54 341 3.0 8.0 0.00 0.00 0.00 38 937.6
20200331072853 54 333 3.0 8.0 0.00 0.00 0.00 38 937.5
20200331072753 54 330 3.0 8.0 0.00 0.00 0.00 38 937.6
20200331072654 54 337 4.0 8.0 0.00 0.00 0.00 38 937.5
20200331072549 54 5 4.0 8.0 0.00 0.00 0.00 37 937.5
20200331072449 54 347 4.0 8.0 0.00 0.00 0.00 38 937.5
20200331072350 54 306 4.0 8.0 0.00 0.00 0.00 37 937.5
20200331072248 54 287 4.0 8.0 0.00 0.00 0.00 37 937.5
20200331072148 54 340 4.0 8.0 0.00 0.00 0.00 37 937.4
20200331072049 54 323 4.0 8.0 0.00 0.00 0.00 38 937.4
20200331071949 54 308 4.0 8.0 0.00 0.00 0.00 38 937.4
20200331071850 54 328 5.0 9.0 0.00 0.00 0.00 37 937.4
20200331071745 54 317 5.0 9.0 0.00 0.00 0.00 38 937.4
20200331071644 54 19 4.0 9.0 0.00 0.00 0.00 38 937.5
20200331071546 53 292 5.0 9.0 0.00 0.00 0.00 38 937.4
20200331071445 54 355 5.0 9.0 0.00 0.00 0.00 38 937.3
20200331071345 54 331 5.0 9.0 0.00 0.00 0.00 40 937.4
20200331071244 54 336 5.0 9.0 0.00 0.00 0.00 38 937.4
20200331071145 54 335 5.0 9.0 0.00 0.00 0.00 38 937.4
20200331071046 54 355 5.0 9.0 0.00 0.00 0.00 38 937.4
20200331070941 54 0 5.0 10.0 0.00 0.00 0.00 39 937.4
20200331070842 54 339 5.0 10.0 0.00 0.00 0.00 38 937.4
20200331070740 54 347 5.0 10.0 0.00 0.00 0.00 38 937.4
20200331070640 54 342 5.0 10.0 0.00 0.00 0.00 38 937.4
20200331070541 54 0 5.0 10.0 0.00 0.00 0.00 38 937.4
20200331070441 54 351 5.0 10.0 0.00 0.00 0.00 38 937.4
20200331070341 54 0 6.0 10.0 0.00 0.00 0.00 39 937.3
20200331070241 54 346 6.0 10.0 0.00 0.00 0.00 38 937.2
20200331070137 54 0 6.0 10.0 0.00 0.00 0.00 38 937.3
20200331070036 54 5 6.0 10.0 0.00 0.00 0.00 39 937.3
20200331065938 54 18 6.0 10.0 0.00 0.00 0.00 38 937.3
20200331065836 54 0 6.0 10.0 0.00 0.00 0.00 38 937.2
20200331065736 53 340 6.0 10.0 0.00 0.00 0.00 39 937.2
20200331065637 53 321 6.0 9.0 0.00 0.00 0.00 39 937.2
20200331065536 53 342 5.0 9.0 0.00 0.00 0.00 40 937.3
20200331065438 53 348 5.0 9.0 0.00 0.00 0.00 40 937.3
20200331065334 53 339 5.0 9.0 0.00 0.00 0.00 40 937.3
20200331065232 53 340 4.0 9.0 0.00 0.00 0.00 40 937.3
20200331065133 53 355 4.0 9.0 0.00 0.00 0.00 40 937.4
20200331065033 53 19 4.0 9.0 0.00 0.00 0.00 39 937.5
20200331064932 53 22 4.0 9.0 0.00 0.00 0.00 40 937.4
20200331064834 53 31 4.0 9.0 0.00 0.00 0.00 40 937.5
20200331064733 53 0 4.0 9.0 0.00 0.00 0.00 40 937.4
20200331064634 53 23 4.0 9.0 0.00 0.00 0.00 40 937.5
20200331064529 53 355 4.0 9.0 0.00 0.00 0.00 40 937.5
20200331064429 53 14 4.0 9.0 0.00 0.00 0.00 40 937.5
20200331064330 53 22 4.0 9.0 0.00 0.00 0.00 41 937.4
20200331064229 53 5 4.0 9.0 0.00 0.00 0.00 40 937.5
20200331064129 53 30 4.0 9.0 0.00 0.00 0.00 40 937.5
20200331064030 53 0 4.0 9.0 0.00 0.00 0.00 40 937.4
20200331063929 53 64 4.0 10.0 0.00 0.00 0.00 40 937.4
20200331063830 54 355 4.0 10.0 0.00 0.00 0.00 40 937.3
20200331063724 54 355 4.0 10.0 0.00 0.00 0.00 40 937.3
20200331063626 53 5 4.0 10.0 0.00 0.00 0.00 40 937.3
20200331063526 53 26 4.0 10.0 0.00 0.00 0.00 40 937.3
20200331063428 53 22 4.0 10.0 0.00 0.00 0.00 40 937.3
20200331063325 53 9 4.0 10.0 0.00 0.00 0.00 40 937.2
20200331063224 53 355 4.0 10.0 0.00 0.00 0.00 41 937.3
20200331063124 53 355 4.0 10.0 0.00 0.00 0.00 40 937.3
20200331063025 53 38 3.0 10.0 0.00 0.00 0.00 40 937.2
20200331062922 53 17 3.0 8.0 0.00 0.00 0.00 41 937.4
20200331062820 53 31 3.0 7.0 0.00 0.00 0.00 41 937.3
20200331062721 53 28 3.0 7.0 0.00 0.00 0.00 41 937.3
20200331062622 53 24 3.0 7.0 0.00 0.00 0.00 40 937.4
20200331062520 53 17 3.0 8.0 0.00 0.00 0.00 40 937.4
20200331062421 53 39 3.0 8.0 0.00 0.00 0.00 41 937.4
20200331062321 54 21 3.0 8.0 0.00 0.00 0.00 40 937.5
20200331062221 54 22 3.0 8.0 0.00 0.00 0.00 40 937.4
20200331062118 54 24 3.0 8.0 0.00 0.00 0.00 40 937.4
20200331062017 54 36 3.0 8.0 0.00 0.00 0.00 40 937.5
20200331061917 54 32 3.0 8.0 0.00 0.00 0.00 39 937.5
20200331061817 54 30 4.0 8.0 0.00 0.00 0.00 39 937.4
20200331061717 54 14 4.0 8.0 0.00 0.00 0.00 40 937.5
20200331061610 54 19 4.0 8.0 0.00 0.00 0.00 39 937.5
20200331061510 54 338 4.0 8.0 0.00 0.00 0.00 39 937.5
20200331061402 54 40 4.0 8.0 0.00 0.00 0.00 39 937.4
20200331061304 55 350 4.0 8.0 0.00 0.00 0.00 39 937.5
20200331061158 55 0 4.0 8.0 0.00 0.00 0.00 39 937.4
20200331061056 55 323 3.0 8.0 0.00 0.00 0.00 39 937.4
20200331060952 55 355 3.0 8.0 0.00 0.00 0.00 38 937.5
20200331060850 55 335 2.0 8.0 0.00 0.00 0.00 38 937.5
20200331060746 55 323 2.0 6.0 0.00 0.00 0.00 38 937.6
20200331060645 55 338 1.0 6.0 0.00 0.00 0.00 38 937.6
20200331060540 55 335 1.0 4.0 0.00 0.00 0.00 37 937.6
20200331060440 55 332 1.0 4.0 0.00 0.00 0.00 37 937.8
20200331060340 55 346 1.0 4.0 0.00 0.00 0.00 38 937.7
20200331060240 55 5 1.0 3.0 0.00 0.00 0.00 38 937.7
20200331060138 55 13 2.0 5.0 0.00 0.00 0.00 38 937.7
20200331060038 55 13 2.0 6.0 0.00 0.00 0.00 38 937.7
20200331055937 55 13 2.0 7.0 0.00 0.00 0.00 38 937.7
20200331055837 55 13 3.0 7.0 0.00 0.00 0.00 38 937.7
20200331055738 55 13 3.0 7.0 0.00 0.00 0.00 38 937.7
20200331055632 55 13 3.0 7.0 0.00 0.00 0.00 37 937.6
20200331055532 55 5 3.0 7.0 0.00 0.00 0.00 38 937.6
20200331055428 55 5 3.0 7.0 0.00 0.00 0.00 38 937.6
20200331055326 55 5 3.0 7.0 0.00 0.00 0.00 37 937.7
20200331055226 55 348 3.0 7.0 0.00 0.00 0.00 37 937.7
20200331055126 55 340 3.0 7.0 0.00 0.00 0.00 37 937.6
20200331055023 55 295 3.0 7.0 0.00 0.00 0.00 38 937.6
20200331054923 55 355 3.0 7.0 0.00 0.00 0.00 37 937.5
20200331054823 55 286 3.0 7.0 0.00 0.00 0.00 36 937.5
20200331054722 55 300 3.0 5.0 0.00 0.00 0.00 38 937.6
20200331054623 55 342 3.0 5.0 0.00 0.00 0.00 38 937.5
20200331054517 55 0 2.0 5.0 0.00 0.00 0.00 38 937.5
20200331054417 55 351 2.0 5.0 0.00 0.00 0.00 38 937.4
20200331054310 55 15 2.0 5.0 0.00 0.00 0.00 38 937.5
20200331054211 55 12 2.0 5.0 0.00 0.00 0.00 37 937.4
20200331054104 55 323 2.0 5.0 0.00 0.00 0.00 38 937.5
20200331054005 55 350 2.0 5.0 0.00 0.00 0.00 39 937.5
20200331053858 55 338 2.0 5.0 0.00 0.00 0.00 39 937.5
20200331053759 55 343 1.0 5.0 0.00 0.00 0.00 39 937.5
20200331053658 55 0 1.0 4.0 0.00 0.00 0.00 39 937.6
20200331053600 55 5 1.0 4.0 0.00 0.00 0.00 39 937.6
20200331053500 56 11 1.0 3.0 0.00 0.00 0.00 40 937.6
20200331053356 56 56 1.0 3.0 0.00 0.00 0.00 38 937.8
20200331053256 56 56 0.0 3.0 0.00 0.00 0.00 38 937.7
20200331053158 56 56 0.0 3.0 0.00 0.00 0.00 37 937.8
20200331053057 56 56 0.0 3.0 0.00 0.00 0.00 37 937.8
20200331052952 56 56 0.0 3.0 0.00 0.00 0.00 37 937.8
20200331052850 56 56 1.0 3.0 0.00 0.00 0.00 37 937.8
20200331052744 56 56 1.0 3.0 0.00 0.00 0.00 37 937.7
20200331052646 56 56 1.0 3.0 0.00 0.00 0.00 38 937.7
20200331052539 56 56 1.0 3.0 0.00 0.00 0.00 37 937.7
20200331052439 56 56 1.0 3.0 0.00 0.00 0.00 37 937.7
20200331052334 56 56 1.0 7.0 0.00 0.00 0.00 36 937.6
20200331052233 56 57 1.0 7.0 0.00 0.00 0.00 36 937.7
20200331052128 56 57 1.0 7.0 0.00 0.00 0.00 36 937.7
20200331052028 56 38 1.0 7.0 0.00 0.00 0.00 36 937.8
20200331051922 56 317 1.0 7.0 0.00 0.00 0.00 36 937.8
20200331051821 56 296 1.0 7.0 0.00 0.00 0.00 36 937.8
20200331051715 56 295 2.0 7.0 0.00 0.00 0.00 35 937.7
20200331051615 56 293 2.0 7.0 0.00 0.00 0.00 36 937.7
20200331051508 57 292 2.0 7.0 0.00 0.00 0.00 35 937.7
20200331051409 57 310 2.0 4.0 0.00 0.00 0.00 35 937.8
20200331051302 57 296 2.0 4.0 0.00 0.00 0.00 35 937.8
20200331051203 57 311 2.0 4.0 0.00 0.00 0.00 35 937.8
20200331051057 57 269 3.0 4.0 0.00 0.00 0.00 35 937.8
20200331050957 57 269 3.0 4.0 0.00 0.00 0.00 35 937.8
20200331050850 57 269 3.0 4.0 0.00 0.00 0.00 35 937.9
20200331050751 57 269 3.0 4.0 0.00 0.00 0.00 35 937.9
20200331050644 57 269 3.0 4.0 0.00 0.00 0.00 35 937.9
20200331050546 57 269 3.0 4.0 0.00 0.00 0.00 35 937.9
20200331050439 57 269 3.0 4.0 0.00 0.00 0.00 35 937.9
20200331050339 57 268 3.0 4.0 0.00 0.00 0.00 35 938.0
20200331050234 57 268 3.0 4.0 0.00 0.00 0.00 35 937.9
20200331050133 57 268 3.0 4.0 0.00 0.00 0.00 35 938.0
20200331050026 56 269 2.0 4.0 0.00 0.00 0.00 35 937.9
20200331045927 56 267 2.0 4.0 0.00 0.00 0.00 36 937.9
20200331045822 56 266 2.0 4.0 0.00 0.00 0.00 36 937.8
20200331045721 56 261 2.0 4.0 0.00 0.00 0.00 36 937.9
20200331045615 56 246 1.0 3.0 0.00 0.00 0.00 36 938.0
20200331045515 56 245 1.0 3.0 0.00 0.00 0.00 36 938.0
20200331045410 57 245 1.0 3.0 0.00 0.00 0.00 36 938.1
20200331045309 57 244 1.0 3.0 0.00 0.00 0.00 36 938.1
20200331045202 57 244 1.0 2.0 0.00 0.00 0.00 36 938.1
20200331045103 57 244 0.0 2.0 0.00 0.00 0.00 35 938.1
20200331044956 57 244 0.0 1.0 0.00 0.00 0.00 35 938.1
20200331044856 57 244 0.0 1.0 0.00 0.00 0.00 35 938.1
20200331044750 57 244 0.0 2.0 0.00 0.00 0.00 35 938.0
20200331044649 57 244 1.0 2.0 0.00 0.00 0.00 35 937.9
20200331044543 57 244 1.0 2.0 0.00 0.00 0.00 35 937.9
20200331044443 57 244 1.0 2.0 0.00 0.00 0.00 35 937.9
20200331044336 57 244 1.0 2.0 0.00 0.00 0.00 35 937.9
20200331044237 57 244 1.0 2.0 0.00 0.00 0.00 35 938.0
20200331044131 57 244 1.0 2.0 0.00 0.00 0.00 35 938.1
20200331044031 57 244 1.0 2.0 0.00 0.00 0.00 35 938.0
20200331043924 57 244 1.0 2.0 0.00 0.00 0.00 35 938.0
20200331043825 57 244 1.0 2.0 0.00 0.00 0.00 36 938.1
20200331043718 57 244 1.0 2.0 0.00 0.00 0.00 36 938.0
20200331043619 57 244 1.0 2.0 0.00 0.00 0.00 36 938.0
20200331043513 57 244 1.0 2.0 0.00 0.00 0.00 36 938.1
20200331043412 57 244 1.0 2.0 0.00 0.00 0.00 36 938.1
20200331043305 57 244 1.0 3.0 0.00 0.00 0.00 36 938.1
20200331043205 57 244 1.0 3.0 0.00 0.00 0.00 36 938.0
20200331043058 57 244 2.0 4.0 0.00 0.00 0.00 36 938.1
20200331042959 57 244 2.0 4.0 0.00 0.00 0.00 36 938.1
20200331042853 57 244 2.0 4.0 0.00 0.00 0.00 36 938.0
20200331042753 57 244 2.0 4.0 0.00 0.00 0.00 35 938.0
20200331042646 57 244 2.0 4.0 0.00 0.00 0.00 35 938.0
20200331042547 57 244 3.0 4.0 0.00 0.00 0.00 35 938.0
20200331042441 57 244 3.0 4.0 0.00 0.00 0.00 35 938.1
20200331042341 57 244 3.0 4.0 0.00 0.00 0.00 35 938.1
20200331042235 57 244 3.0 6.0 0.00 0.00 0.00 35 938.1
20200331042134 57 244 3.0 6.0 0.00 0.00 0.00 36 938.2
20200331042029 57 242 3.0 6.0 0.00 0.00 0.00 36 938.2
20200331041929 57 242 3.0 6.0 0.00 0.00 0.00 34 938.1
20200331041822 57 244 3.0 6.0 0.00 0.00 0.00 34 938.1
20200331041723 57 252 3.0 6.0 0.00 0.00 0.00 36 938.1
20200331041616 57 268 3.0 9.0 0.00 0.00 0.00 35 937.9
20200331041517 57 269 3.0 9.0 0.00 0.00 0.00 36 937.9
20200331041410 58 268 3.0 9.0 0.00 0.00 0.00 33 938.0
20200331041311 58 271 3.0 9.0 0.00 0.00 0.00 34 937.9
20200331041206 58 258 3.0 9.0 0.00 0.00 0.00 35 938.0
20200331041105 58 262 3.0 9.0 0.00 0.00 0.00 34 937.9
20200331041000 58 265 3.0 9.0 0.00 0.00 0.00 33 937.9
20200331040859 58 273 3.0 9.0 0.00 0.00 0.00 33 937.9
20200331040754 57 265 3.0 9.0 0.00 0.00 0.00 34 938.0
20200331040652 57 263 3.0 7.0 0.00 0.00 0.00 34 937.9
20200331040546 57 270 3.0 7.0 0.00 0.00 0.00 36 938.0
20200331040445 57 263 3.0 4.0 0.00 0.00 0.00 36 937.9
20200331040343 57 257 3.0 4.0 0.00 0.00 0.00 36 938.0
20200331040244 57 257 3.0 4.0 0.00 0.00 0.00 36 938.0
20200331040144 57 257 3.0 4.0 0.00 0.00 0.00 36 938.1
20200331040044 57 256 3.0 4.0 0.00 0.00 0.00 36 938.0
20200331035942 57 257 3.0 4.0 0.00 0.00 0.00 36 938.0
20200331035842 57 256 3.0 4.0 0.00 0.00 0.00 37 938.1
20200331035742 57 255 3.0 4.0 0.00 0.00 0.00 37 938.1
20200331035644 58 255 3.0 4.0 0.00 0.00 0.00 37 938.0
20200331035538 58 255 3.0 4.0 0.00 0.00 0.00 37 938.0
20200331035437 58 255 2.0 4.0 0.00 0.00 0.00 36 938.0
20200331035334 58 255 2.0 4.0 0.00 0.00 0.00 36 938.0
20200331035235 58 255 2.0 4.0 0.00 0.00 0.00 36 938.0
20200331035135 58 255 3.0 4.0 0.00 0.00 0.00 35 938.0
20200331035036 58 255 3.0 4.0 0.00 0.00 0.00 36 938.0
20200331034934 58 261 3.0 5.0 0.00 0.00 0.00 37 938.1
20200331034832 58 262 3.0 7.0 0.00 0.00 0.00 36 938.1
20200331034733 58 262 3.0 7.0 0.00 0.00 0.00 36 938.1
20200331034626 58 262 3.0 7.0 0.00 0.00 0.00 36 938.1
20200331034527 58 262 3.0 7.0 0.00 0.00 0.00 36 938.2
20200331034422 58 263 3.0 7.0 0.00 0.00 0.00 36 938.1
20200331034321 58 263 3.0 7.0 0.00 0.00 0.00 36 938.1
20200331034214 58 265 3.0 7.0 0.00 0.00 0.00 36 938.2
20200331034114 58 267 3.0 7.0 0.00 0.00 0.00 36 938.1
20200331034009 58 255 3.0 7.0 0.00 0.00 0.00 37 938.1
20200331033909 58 240 3.0 6.0 0.00 0.00 0.00 37 938.2
20200331033805 58 247 3.0 5.0 0.00 0.00 0.00 37 938.2
20200331033704 57 256 3.0 4.0 0.00 0.00 0.00 37 938.2
20200331033605 57 258 3.0 4.0 0.00 0.00 0.00 37 938.2
20200331033504 57 240 3.0 4.0 0.00 0.00 0.00 37 938.2
20200331033401 57 240 3.0 4.0 0.00 0.00 0.00 38 938.2
20200331033301 57 240 3.0 4.0 0.00 0.00 0.00 38 938.3
20200331033200 57 240 3.0 4.0 0.00 0.00 0.00 38 938.3
20200331033101 58 234 3.0 8.0 0.00 0.00 0.00 37 938.2
20200331033001 57 260 3.0 8.0 0.00 0.00 0.00 37 938.2
20200331032856 57 252 3.0 8.0 0.00 0.00 0.00 38 938.3
20200331032755 58 251 3.0 8.0 0.00 0.00 0.00 38 938.3
20200331032649 58 252 3.0 8.0 0.00 0.00 0.00 38 938.3
20200331032549 58 250 4.0 8.0 0.00 0.00 0.00 38 938.3
20200331032443 58 252 4.0 8.0 0.00 0.00 0.00 37 938.3
20200331032343 58 252 4.0 8.0 0.00 0.00 0.00 37 938.3
20200331032237 58 245 4.0 8.0 0.00 0.00 0.00 37 938.4
20200331032137 58 272 4.0 8.0 0.00 0.00 0.00 37 938.4
20200331032031 58 256 4.0 7.0 0.00 0.00 0.00 37 938.5
20200331031929 58 257 4.0 7.0 0.00 0.00 0.00 37 938.5
20200331031824 58 244 4.0 7.0 0.00 0.00 0.00 37 938.4
20200331031723 58 256 5.0 7.0 0.00 0.00 0.00 36 938.4
20200331031616 58 259 4.0 7.0 0.00 0.00 0.00 37 938.3
20200331031517 58 246 5.0 7.0 0.00 0.00 0.00 37 938.3
20200331031413 58 256 5.0 8.0 0.00 0.00 0.00 37 938.2
20200331031311 58 242 5.0 8.0 0.00 0.00 0.00 37 938.3
20200331031205 58 265 5.0 8.0 0.00 0.00 0.00 37 938.2
20200331031105 58 259 5.0 8.0 0.00 0.00 0.00 37 938.3
20200331030958 58 274 5.0 8.0 0.00 0.00 0.00 37 938.2
20200331030859 58 263 5.0 8.0 0.00 0.00 0.00 37 938.3
20200331030754 58 250 5.0 8.0 0.00 0.00 0.00 37 938.3
20200331030653 58 252 5.0 8.0 0.00 0.00 0.00 37 938.3
20200331030546 58 262 5.0 8.0 0.00 0.00 0.00 37 938.3
20200331030446 58 238 5.0 9.0 0.00 0.00 0.00 37 938.3
20200331030338 58 269 5.0 9.0 0.00 0.00 0.00 37 938.4
20200331030240 58 272 5.0 9.0 0.00 0.00 0.00 37 938.4
20200331030132 58 263 5.0 9.0 0.00 0.00 0.00 36 938.4
20200331030033 58 261 5.0 9.0 0.00 0.00 0.00 36 938.4
20200331025928 58 263 5.0 9.0 0.00 0.00 0.00 37 938.4
20200331025827 58 274 5.0 9.0 0.00 0.00 0.00 37 938.5
20200331025721 58 247 5.0 9.0 0.00 0.00 0.00 37 938.4
20200331025621 58 252 5.0 9.0 0.00 0.00 0.00 36 938.5
20200331025522 58 267 5.0 9.0 0.00 0.00 0.00 36 938.5
20200331025422 58 256 5.0 8.0 0.00 0.00 0.00 36 938.5
20200331025322 58 259 5.0 8.0 0.00 0.00 0.00 36 938.5
20200331025219 58 265 5.0 8.0 0.00 0.00 0.00 36 938.5
20200331025118 58 264 5.0 8.0 0.00 0.00 0.00 36 938.5
20200331025019 58 263 5.0 8.0 0.00 0.00 0.00 36 938.6
20200331024919 58 250 6.0 8.0 0.00 0.00 0.00 36 938.6
20200331024814 58 253 5.0 8.0 0.00 0.00 0.00 36 938.6
20200331024714 59 259 5.0 8.0 0.00 0.00 0.00 36 938.7
20200331024607 59 259 6.0 10.0 0.00 0.00 0.00 36 938.7
20200331024507 59 257 6.0 10.0 0.00 0.00 0.00 36 938.7
20200331024402 59 266 6.0 10.0 0.00 0.00 0.00 36 938.8
20200331024301 59 266 6.0 10.0 0.00 0.00 0.00 36 938.8
20200331024154 59 251 6.0 10.0 0.00 0.00 0.00 36 938.8
20200331024055 59 252 6.0 10.0 0.00 0.00 0.00 36 939.0
20200331023948 59 236 6.0 10.0 0.00 0.00 0.00 36 939.0
20200331023848 59 252 6.0 10.0 0.00 0.00 0.00 36 939.1
20200331023741 59 251 6.0 10.0 0.00 0.00 0.00 36 939.0
20200331023641 59 253 6.0 10.0 0.00 0.00 0.00 36 939.1
20200331023534 59 234 6.0 10.0 0.00 0.00 0.00 36 939.1
20200331023435 59 250 6.0 10.0 0.00 0.00 0.00 36 939.1
20200331023330 59 262 6.0 10.0 0.00 0.00 0.00 35 939.0
20200331023228 59 258 6.0 10.0 0.00 0.00 0.00 36 939.1
20200331023123 59 250 6.0 10.0 0.00 0.00 0.00 35 939.1
20200331023023 59 249 6.0 10.0 0.00 0.00 0.00 35 939.1
20200331022918 59 244 6.0 10.0 0.00 0.00 0.00 35 939.1
20200331022817 59 278 6.0 10.0 0.00 0.00 0.00 36 939.1
20200331022711 59 232 6.0 10.0 0.00 0.00 0.00 35 939.2
20200331022611 59 263 5.0 9.0 0.00 0.00 0.00 35 939.0
20200331022505 59 249 5.0 9.0 0.00 0.00 0.00 35 939.1
20200331022404 59 255 5.0 9.0 0.00 0.00 0.00 35 939.1
20200331022256 59 253 5.0 9.0 0.00 0.00 0.00 35 939.2
20200331022157 59 255 5.0 9.0 0.00 0.00 0.00 35 939.2
20200331022051 59 250 5.0 9.0 0.00 0.00 0.00 35 939.3
20200331021951 59 248 5.0 9.0 0.00 0.00 0.00 35 939.2
20200331021844 59 252 5.0 9.0 0.00 0.00 0.00 34 939.3
20200331021744 59 232 5.0 9.0 0.00 0.00 0.00 35 939.3
20200331021641 59 267 5.0 8.0 0.00 0.00 0.00 35 939.3
20200331021540 59 239 5.0 8.0 0.00 0.00 0.00 35 939.2
20200331021441 59 252 5.0 8.0 0.00 0.00 0.00 34 939.3
20200331021340 59 247 5.0 8.0 0.00 0.00 0.00 34 939.3
20200331021240 59 254 5.0 8.0 0.00 0.00 0.00 35 939.3
20200331021137 59 248 5.0 11.0 0.00 0.00 0.00 34 939.4
20200331021036 59 248 4.0 11.0 0.00 0.00 0.00 34 939.5
20200331020937 59 248 5.0 11.0 0.00 0.00 0.00 35 939.5
20200331020837 59 250 5.0 11.0 0.00 0.00 0.00 34 939.4
20200331020732 59 250 5.0 11.0 0.00 0.00 0.00 34 939.5
20200331020630 59 251 5.0 11.0 0.00 0.00 0.00 34 939.5
20200331020524 60 257 5.0 11.0 0.00 0.00 0.00 34 939.5
20200331020425 60 252 5.0 11.0 0.00 0.00 0.00 34 939.5
20200331020319 60 257 5.0 11.0 0.00 0.00 0.00 34 939.5
20200331020219 60 246 5.0 11.0 0.00 0.00 0.00 33 939.5
20200331020112 60 240 5.0 11.0 0.00 0.00 0.00 34 939.6
20200331020012 60 276 6.0 11.0 0.00 0.00 0.00 33 939.6
20200331015907 60 232 5.0 11.0 0.00 0.00 0.00 33 939.6
20200331015807 60 255 5.0 11.0 0.00 0.00 0.00 33 939.5
20200331015700 60 243 5.0 11.0 0.00 0.00 0.00 33 939.5
20200331015600 60 238 5.0 11.0 0.00 0.00 0.00 33 939.4
20200331015455 60 240 5.0 11.0 0.00 0.00 0.00 33 939.5
20200331015355 60 263 5.0 11.0 0.00 0.00 0.00 33 939.5
20200331015249 60 269 5.0 11.0 0.00 0.00 0.00 33 939.5
20200331015149 60 247 5.0 11.0 0.00 0.00 0.00 32 939.6
20200331015043 60 246 5.0 9.0 0.00 0.00 0.00 33 939.5
20200331014943 60 268 5.0 9.0 0.00 0.00 0.00 32 939.5
20200331014837 60 246 5.0 9.0 0.00 0.00 0.00 32 939.5
20200331014737 60 252 5.0 9.0 0.00 0.00 0.00 32 939.5
20200331014636 60 251 5.0 9.0 0.00 0.00 0.00 32 939.5
20200331014537 60 251 5.0 9.0 0.00 0.00 0.00 32 939.5
20200331014435 60 252 5.0 9.0 0.00 0.00 0.00 32 939.6
20200331014334 60 265 5.0 10.0 0.00 0.00 0.00 32 939.6
20200331014236 60 263 6.0 11.0 0.00 0.00 0.00 32 939.6
20200331014136 60 246 6.0 11.0 0.00 0.00 0.00 32 939.5
20200331014035 60 263 6.0 11.0 0.00 0.00 0.00 32 939.5
20200331013929 60 254 6.0 11.0 0.00 0.00 0.00 32 939.5
20200331013829 60 252 6.0 11.0 0.00 0.00 0.00 32 939.5
20200331013723 60 245 6.0 11.0 0.00 0.00 0.00 32 939.5
20200331013623 60 240 6.0 11.0 0.00 0.00 0.00 32 939.5
20200331013516 60 240 6.0 11.0 0.00 0.00 0.00 32 939.5
20200331013417 60 248 6.0 11.0 0.00 0.00 0.00 32 939.4
20200331013311 60 248 5.0 11.0 0.00 0.00 0.00 32 939.5
20200331013211 60 251 5.0 11.0 0.00 0.00 0.00 31 939.4
20200331013105 60 254 5.0 11.0 0.00 0.00 0.00 32 939.5
20200331013005 60 248 5.0 10.0 0.00 0.00 0.00 32 939.5
20200331012900 60 261 5.0 10.0 0.00 0.00 0.00 32 939.6
20200331012758 60 245 5.0 10.0 0.00 0.00 0.00 32 939.6
20200331012653 60 270 5.0 10.0 0.00 0.00 0.00 32 939.6
20200331012553 60 240 5.0 9.0 0.00 0.00 0.00 32 939.6
20200331012448 60 261 5.0 9.0 0.00 0.00 0.00 32 939.6
20200331012346 60 252 5.0 9.0 0.00 0.00 0.00 32 939.6
20200331012240 60 248 5.0 9.0 0.00 0.00 0.00 32 939.7
20200331012141 60 244 5.0 9.0 0.00 0.00 0.00 32 939.7
20200331012034 60 250 5.0 9.0 0.00 0.00 0.00 32 939.7
20200331011935 60 248 5.0 9.0 0.00 0.00 0.00 32 939.6
20200331011830 60 234 4.0 9.0 0.00 0.00 0.00 32 939.7
20200331011728 60 260 4.0 9.0 0.00 0.00 0.00 32 939.6
20200331011623 60 250 4.0 8.0 0.00 0.00 0.00 32 939.6
20200331011523 60 259 4.0 8.0 0.00 0.00 0.00 32 939.7
20200331011418 60 242 4.0 8.0 0.00 0.00 0.00 32 939.7
20200331011317 60 251 4.0 9.0 0.00 0.00 0.00 32 939.7
20200331011210 60 249 4.0 9.0 0.00 0.00 0.00 32 939.6
20200331011111 60 269 4.0 9.0 0.00 0.00 0.00 31 939.6
20200331011004 60 254 4.0 9.0 0.00 0.00 0.00 32 939.6
20200331010905 60 260 4.0 9.0 0.00 0.00 0.00 32 939.6
20200331010758 60 269 4.0 9.0 0.00 0.00 0.00 32 939.7
20200331010700 60 249 4.0 9.0 0.00 0.00 0.00 32 939.6
20200331010553 60 246 4.0 9.0 0.00 0.00 0.00 31 939.5
20200331010453 60 267 4.0 9.0 0.00 0.00 0.00 31 939.5
20200331010347 60 256 4.0 7.0 0.00 0.00 0.00 32 939.5
20200331010247 60 254 5.0 8.0 0.00 0.00 0.00 31 939.4
20200331010140 60 262 5.0 9.0 0.00 0.00 0.00 31 939.4
20200331010041 61 255 5.0 10.0 0.00 0.00 0.00 31 939.4
20200331005934 61 259 6.0 10.0 0.00 0.00 0.00 31 939.5
20200331005836 61 261 6.0 11.0 0.00 0.00 0.00 31 939.5
20200331005729 61 273 6.0 11.0 0.00 0.00 0.00 31 939.5
20200331005629 61 246 6.0 11.0 0.00 0.00 0.00 31 939.4
20200331005524 61 256 6.0 11.0 0.00 0.00 0.00 31 939.4
20200331005423 61 263 6.0 11.0 0.00 0.00 0.00 31 939.4
20200331005317 61 257 6.0 11.0 0.00 0.00 0.00 31 939.4
20200331005217 61 263 6.0 11.0 0.00 0.00 0.00 31 939.4
20200331005111 61 255 6.0 11.0 0.00 0.00 0.00 31 939.3
20200331005011 61 229 6.0 11.0 0.00 0.00 0.00 31 939.4
20200331004906 61 236 6.0 11.0 0.00 0.00 0.00 31 939.3
20200331004805 61 251 6.0 10.0 0.00 0.00 0.00 31 939.4
20200331004659 61 250 6.0 11.0 0.00 0.00 0.00 31 939.4
20200331004559 61 246 6.0 11.0 0.00 0.00 0.00 31 939.3
20200331004454 61 252 5.0 11.0 0.00 0.00 0.00 32 939.3
20200331004353 61 253 5.0 11.0 0.00 0.00 0.00 31 939.3
20200331004247 61 252 5.0 11.0 0.00 0.00 0.00 31 939.2
20200331004147 61 265 5.0 11.0 0.00 0.00 0.00 31 939.2
20200331004041 61 250 5.0 11.0 0.00 0.00 0.00 31 939.2
20200331003941 61 255 5.0 11.0 0.00 0.00 0.00 31 939.1
20200331003836 61 241 5.0 11.0 0.00 0.00 0.00 31 939.1
20200331003734 61 254 4.0 10.0 0.00 0.00 0.00 31 939.2
20200331003628 61 229 4.0 9.0 0.00 0.00 0.00 31 939.1
20200331003528 61 246 4.0 9.0 0.00 0.00 0.00 31 939.2
20200331003423 61 275 4.0 9.0 0.00 0.00 0.00 31 939.2
20200331003323 61 242 4.0 9.0 0.00 0.00 0.00 31 939.1
20200331003217 61 232 4.0 9.0 0.00 0.00 0.00 31 939.2
20200331003117 61 232 4.0 9.0 0.00 0.00 0.00 31 939.1
20200331003012 61 232 4.0 9.0 0.00 0.00 0.00 31 939.2
20200331002911 61 243 4.0 9.0 0.00 0.00 0.00 31 939.2
20200331002805 61 247 4.0 9.0 0.00 0.00 0.00 31 939.2
20200331002705 61 251 4.0 9.0 0.00 0.00 0.00 30 939.2
20200331002558 61 240 4.0 9.0 0.00 0.00 0.00 30 939.3
20200331002459 61 236 4.0 9.0 0.00 0.00 0.00 30 939.4
20200331002353 61 241 4.0 9.0 0.00 0.00 0.00 30 939.3
20200331002252 61 235 4.0 9.0 0.00 0.00 0.00 30 939.4
20200331002146 61 250 4.0 9.0 0.00 0.00 0.00 30 939.4
20200331002047 61 237 4.0 9.0 0.00 0.00 0.00 30 939.3
20200331001941 61 240 5.0 9.0 0.00 0.00 0.00 30 939.3
20200331001841 61 252 5.0 10.0 0.00 0.00 0.00 31 939.4
20200331001736 61 243 5.0 10.0 0.00 0.00 0.00 30 939.2
20200331001634 61 262 5.0 10.0 0.00 0.00 0.00 30 939.3
20200331001529 62 263 5.0 10.0 0.00 0.00 0.00 30 939.2
20200331001429 62 250 5.0 10.0 0.00 0.00 0.00 30 939.3
20200331001323 62 257 5.0 10.0 0.00 0.00 0.00 30 939.2
20200331001223 62 248 5.0 10.0 0.00 0.00 0.00 30 939.3
20200331001118 62 269 5.0 10.0 0.00 0.00 0.00 30 939.3
20200331001016 62 267 5.0 10.0 0.00 0.00 0.00 30 939.2
20200331000910 62 266 5.0 9.0 0.00 0.00 0.00 30 939.4
20200331000811 62 236 5.0 9.0 0.00 0.00 0.00 30 939.3
20200331000706 62 257 5.0 11.0 0.00 0.00 0.00 30 939.4
20200331000605 62 235 5.0 11.0 0.00 0.00 0.00 30 939.4
20200331000459 62 267 6.0 11.0 0.00 0.00 0.00 30 939.4
20200331000359 62 234 6.0 11.0 0.00 0.00 0.00 29 939.4
20200331000252 62 231 6.0 11.0 0.00 0.00 0.00 29 939.4
20200331000153 62 263 6.0 11.0 0.00 0.00 0.00 29 939.4
20200331000047 62 232 6.0 11.0 0.00 0.00 0.00 29 939.4
20200330235946 62 256 6.0 11.0 0.00 0.00 0.00 29 939.4
20200330235840 62 272 6.0 11.0 0.00 0.00 0.00 29 939.3
20200330235741 62 232 6.0 11.0 0.00 0.00 0.00 29 939.3
20200330235634 62 263 6.0 11.0 0.00 0.00 0.00 29 939.3
20200330235535 62 257 6.0 11.0 0.00 0.00 0.00 29 939.2
20200330235428 62 248 6.0 11.0 0.00 0.00 0.00 29 939.2
20200330235329 62 235 6.0 9.0 0.00 0.00 0.00 29 939.1
20200330235223 62 255 6.0 9.0 0.00 0.00 0.00 29 939.0
20200330235123 62 266 6.0 9.0 0.00 0.00 0.00 29 938.9
20200330235018 62 258 6.0 11.0 0.00 0.00 0.00 29 938.9
20200330234916 62 254 7.0 11.0 0.00 0.00 0.00 29 938.8
20200330234811 62 255 7.0 11.0 0.00 0.00 0.00 29 938.8
20200330234711 62 257 7.0 11.0 0.00 0.00 0.00 29 938.9
20200330234604 62 267 7.0 11.0 0.00 0.00 0.00 30 938.9
20200330234505 62 246 7.0 11.0 0.00 0.00 0.00 29 938.9
20200330234358 63 261 7.0 11.0 0.00 0.00 0.00 29 938.9
20200330234259 63 252 7.0 11.0 0.00 0.00 0.00 29 938.9
20200330234154 63 249 7.0 11.0 0.00 0.00 0.00 28 939.0
20200330234053 63 213 6.0 11.0 0.00 0.00 0.00 29 938.9
20200330233947 63 250 6.0 11.0 0.00 0.00 0.00 29 939.0
20200330233847 63 234 6.0 11.0 0.00 0.00 0.00 29 939.1
20200330233741 63 254 6.0 11.0 0.00 0.00 0.00 29 939.0
20200330233641 63 250 6.0 10.0 0.00 0.00 0.00 29 939.0
20200330233535 63 249 6.0 10.0 0.00 0.00 0.00 29 939.0
20200330233434 63 257 6.0 10.0 0.00 0.00 0.00 29 938.9